Wetterdaten: Montag, 14.09.2009
Datum Zeit Temp. Innen Temp. Aussen UV X Diff Temp. Feuchte Inne Feuchte Auss Sonnenschein Luftdruck Regen ab 0,1 Wind Sonnenschein Windben
14.09.2009 00:00 19,3 C 12,4 C 0,0 UV-I 0,0 C 60 % 88 % 0 % 1020,9 hPa 0,0 l/m 0,7 km/h (0 Bft) 0 min 3,4 km/h (1 Bft)
14.09.2009 00:02 19,2 C 12,3 C 0,0 UV-I 0,0 C 60 % 87 % 0 % 1020,9 hPa 0,0 l/m 0,7 km/h (0 Bft) 0 min 0,0 km/h (0 Bft)
14.09.2009 00:04 19,2 C 12,3 C 0,0 UV-I 0,0 C 60 % 87 % 0 % 1020,9 hPa 0,0 l/m 0,7 km/h (0 Bft) 0 min 0,0 km/h (0 Bft)
14.09.2009 00:06 19,2 C 12,3 C 0,0 UV-I 0,0 C 60 % 88 % 0 % 1020,9 hPa 0,0 l/m 0,2 km/h (0 Bft) 0 min 0,0 km/h (0 Bft)
14.09.2009 00:08 19,2 C 12,3 C 0,0 UV-I 0,0 C 60 % 88 % 0 % 1020,9 hPa 0,0 l/m 0,2 km/h (0 Bft) 0 min 0,0 km/h (0 Bft)
14.09.2009 00:16 19,4 C 12,2 C 0,0 UV-I 0,0 C 60 % 88 % 0 % 1020,9 hPa 0,0 l/m 1,0 km/h (0 Bft) 0 min 4,1 km/h (1 Bft)
14.09.2009 00:18 19,4 C 12,3 C 0,0 UV-I 0,0 C 60 % 88 % 0 % 1020,9 hPa 0,0 l/m 1,0 km/h (0 Bft) 0 min 2,6 km/h (1 Bft)
14.09.2009 00:22 19,4 C 12,3 C 0,0 UV-I 0,0 C 60 % 88 % 0 % 1020,9 hPa 0,0 l/m 0,5 km/h (0 Bft) 0 min 5,3 km/h (1 Bft)
14.09.2009 00:24 19,4 C 12,3 C 0,0 UV-I 0,0 C 60 % 88 % 0 % 1020,9 hPa 0,0 l/m 0,7 km/h (0 Bft) 0 min 2,6 km/h (1 Bft)
14.09.2009 00:28 19,4 C 12,2 C 0,0 UV-I 0,0 C 60 % 89 % 0 % 1020,9 hPa 0,0 l/m 0,5 km/h (0 Bft) 0 min 2,9 km/h (1 Bft)
14.09.2009 00:32 19,5 C 12,2 C 0,0 UV-I 0,0 C 60 % 89 % 0 % 1020,9 hPa 0,0 l/m 0,7 km/h (0 Bft) 0 min 3,1 km/h (1 Bft)
14.09.2009 00:34 19,5 C 12,1 C 0,0 UV-I 0,0 C 60 % 89 % 0 % 1020,9 hPa 0,0 l/m 0,5 km/h (0 Bft) 0 min 0,0 km/h (0 Bft)
14.09.2009 00:36 19,5 C 12,1 C 0,0 UV-I 0,0 C 60 % 89 % 0 % 1020,9 hPa 0,0 l/m 0,5 km/h (0 Bft) 0 min 0,0 km/h (0 Bft)
14.09.2009 00:38 19,5 C 12,1 C 0,0 UV-I 0,0 C 60 % 89 % 0 % 1020,9 hPa 0,0 l/m 0,7 km/h (0 Bft) 0 min 4,6 km/h (1 Bft)
14.09.2009 00:42 19,5 C 12,0 C 0,0 UV-I 0,0 C 60 % 89 % 0 % 1020,9 hPa 0,0 l/m 0,5 km/h (0 Bft) 0 min 2,9 km/h (1 Bft)
14.09.2009 00:46 19,5 C 12,0 C 0,0 UV-I 0,0 C 60 % 89 % 0 % 1020,9 hPa 0,0 l/m 0,5 km/h (0 Bft) 0 min 0,0 km/h (0 Bft)
14.09.2009 00:48 19,5 C 12,0 C 0,0 UV-I 0,0 C 60 % 89 % 0 % 1020,9 hPa 0,0 l/m 0,2 km/h (0 Bft) 0 min 0,0 km/h (0 Bft)
14.09.2009 00:50 19,5 C 12,1 C 0,0 UV-I 0,0 C 60 % 89 % 0 % 1020,9 hPa 0,0 l/m 0,2 km/h (0 Bft) 0 min 4,1 km/h (1 Bft)
14.09.2009 00:52 19,6 C 12,1 C 0,0 UV-I 0,0 C 60 % 89 % 0 % 1020,9 hPa 0,0 l/m 0,2 km/h (0 Bft) 0 min 0,0 km/h (0 Bft)
14.09.2009 00:58 19,6 C 12,0 C 0,0 UV-I 0,0 C 60 % 89 % 0 % 1021,1 hPa 0,0 l/m 0,2 km/h (0 Bft) 0 min 0,0 km/h (0 Bft)
14.09.2009 01:00 19,6 C 11,9 C 0,0 UV-I 0,0 C 60 % 89 % 0 % 1021,1 hPa 0,0 l/m 0,2 km/h (0 Bft) 0 min 0,0 km/h (0 Bft)
14.09.2009 01:02 19,6 C 11,9 C 0,0 UV-I 0,0 C 60 % 89 % 0 % 1021,1 hPa 0,0 l/m 0,0 km/h (0 Bft) 0 min 0,0 km/h (0 Bft)
14.09.2009 01:04 19,6 C 11,9 C 0,0 UV-I 0,0 C 60 % 89 % 0 % 1021,1 hPa 0,0 l/m 0,0 km/h (0 Bft) 0 min 0,0 km/h (0 Bft)
14.09.2009 01:06 19,6 C 11,9 C 0,0 UV-I 0,0 C 60 % 90 % 0 % 1021,1 hPa 0,0 l/m 0,0 km/h (0 Bft) 0 min 2,6 km/h (1 Bft)
14.09.2009 01:08 19,6 C 11,8 C 0,0 UV-I 0,0 C 60 % 90 % 0 % 1021,1 hPa 0,0 l/m 0,0 km/h (0 Bft) 0 min 0,0 km/h (0 Bft)
14.09.2009 01:10 19,6 C 11,8 C 0,0 UV-I 0,0 C 60 % 90 % 0 % 1021,1 hPa 0,0 l/m 0,2 km/h (0 Bft) 0 min 0,0 km/h (0 Bft)
14.09.2009 01:12 19,6 C 11,8 C 0,0 UV-I 0,0 C 60 % 90 % 0 % 1021,1 hPa 0,0 l/m 0,2 km/h (0 Bft) 0 min 0,0 km/h (0 Bft)
14.09.2009 01:14 19,6 C 11,9 C 0,0 UV-I 0,0 C 60 % 90 % 0 % 1021,1 hPa 0,0 l/m 0,2 km/h (0 Bft) 0 min 0,0 km/h (0 Bft)
14.09.2009 01:16 19,6 C 11,9 C 0,0 UV-I 0,0 C 60 % 90 % 0 % 1020,9 hPa 0,0 l/m 0,2 km/h (0 Bft) 0 min 0,0 km/h (0 Bft)
14.09.2009 01:18 19,6 C 11,9 C 0,0 UV-I 0,0 C 60 % 90 % 0 % 1020,9 hPa 0,0 l/m 0,0 km/h (0 Bft) 0 min 0,0 km/h (0 Bft)
14.09.2009 01:20 19,6 C 11,9 C 0,0 UV-I 0,0 C 60 % 90 % 0 % 1020,9 hPa 0,0 l/m 0,0 km/h (0 Bft) 0 min 0,0 km/h (0 Bft)
14.09.2009 01:22 19,6 C 11,9 C 0,0 UV-I 0,0 C 60 % 90 % 0 % 1020,9 hPa 0,0 l/m 0,5 km/h (0 Bft) 0 min 2,6 km/h (1 Bft)
14.09.2009 01:24 19,6 C 11,9 C 0,0 UV-I 0,0 C 60 % 90 % 0 % 1020,9 hPa 0,0 l/m 0,5 km/h (0 Bft) 0 min 0,0 km/h (0 Bft)
14.09.2009 01:28 19,6 C 11,8 C 0,0 UV-I 0,0 C 60 % 90 % 0 % 1020,9 hPa 0,0 l/m 0,7 km/h (0 Bft) 0 min 0,0 km/h (0 Bft)
14.09.2009 01:30 19,6 C 11,9 C 0,0 UV-I 0,0 C 60 % 90 % 0 % 1020,9 hPa 0,0 l/m 0,7 km/h (0 Bft) 0 min 0,0 km/h (0 Bft)
14.09.2009 01:32 19,6 C 11,9 C 0,0 UV-I 0,0 C 60 % 90 % 0 % 1020,9 hPa 0,0 l/m 0,5 km/h (0 Bft) 0 min 3,4 km/h (1 Bft)
14.09.2009 01:34 19,6 C 11,9 C 0,0 UV-I 0,0 C 60 % 90 % 0 % 1020,9 hPa 0,0 l/m 0,2 km/h (0 Bft) 0 min 2,6 km/h (1 Bft)
14.09.2009 01:36 19,6 C 11,8 C 0,0 UV-I 0,0 C 60 % 91 % 0 % 1020,2 hPa 0,0 l/m 0,5 km/h (0 Bft) 0 min 0,0 km/h (0 Bft)
14.09.2009 01:40 19,6 C 11,9 C 0,0 UV-I 0,0 C 60 % 91 % 0 % 1020,2 hPa 0,0 l/m 0,2 km/h (0 Bft) 0 min 2,9 km/h (1 Bft)
14.09.2009 01:44 19,6 C 11,9 C 0,0 UV-I 0,0 C 60 % 91 % 0 % 1020,2 hPa 0,0 l/m 0,2 km/h (0 Bft) 0 min 2,4 km/h (1 Bft)
14.09.2009 01:46 19,6 C 12,0 C 0,0 UV-I 0,0 C 60 % 91 % 0 % 1020,2 hPa 0,0 l/m 0,2 km/h (0 Bft) 0 min 2,4 km/h (1 Bft)
14.09.2009 01:48 19,6 C 12,0 C 0,0 UV-I 0,0 C 60 % 91 % 0 % 1020,2 hPa 0,0 l/m 0,5 km/h (0 Bft) 0 min 2,4 km/h (1 Bft)
14.09.2009 01:50 19,6 C 12,0 C 0,0 UV-I 0,0 C 60 % 91 % 0 % 1020,2 hPa 0,0 l/m 0,5 km/h (0 Bft) 0 min 0,0 km/h (0 Bft)
14.09.2009 01:54 19,6 C 12,0 C 0,0 UV-I 0,0 C 60 % 91 % 0 % 1020,2 hPa 0,0 l/m 0,5 km/h (0 Bft) 0 min 2,6 km/h (1 Bft)
14.09.2009 01:56 19,6 C 12,0 C 0,0 UV-I 0,0 C 60 % 91 % 0 % 1020,8 hPa 0,0 l/m 0,7 km/h (0 Bft) 0 min 3,1 km/h (1 Bft)
14.09.2009 01:58 19,6 C 12,1 C 0,0 UV-I 0,0 C 60 % 91 % 0 % 1020,8 hPa 0,0 l/m 1,0 km/h (0 Bft) 0 min 4,3 km/h (1 Bft)
14.09.2009 02:00 19,6 C 12,1 C 0,0 UV-I 0,0 C 60 % 91 % 0 % 1020,8 hPa 0,0 l/m 1,4 km/h (1 Bft) 0 min 5,5 km/h (1 Bft)
14.09.2009 02:04 19,6 C 12,1 C 0,0 UV-I 0,0 C 60 % 91 % 0 % 1020,8 hPa 0,0 l/m 1,4 km/h (1 Bft) 0 min 0,0 km/h (0 Bft)
14.09.2009 02:06 19,6 C 12,2 C 0,0 UV-I 0,0 C 60 % 91 % 0 % 1020,8 hPa 0,0 l/m 1,2 km/h (1 Bft) 0 min 0,0 km/h (0 Bft)
14.09.2009 02:08 19,6 C 12,3 C 0,0 UV-I 0,0 C 60 % 91 % 0 % 1020,8 hPa 0,0 l/m 1,0 km/h (0 Bft) 0 min 2,6 km/h (1 Bft)
14.09.2009 02:10 19,6 C 12,3 C 0,0 UV-I 0,0 C 60 % 91 % 0 % 1020,8 hPa 0,0 l/m 1,0 km/h (0 Bft) 0 min 5,3 km/h (1 Bft)
14.09.2009 02:14 19,6 C 12,2 C 0,0 UV-I 0,0 C 60 % 91 % 0 % 1020,8 hPa 0,0 l/m 1,0 km/h (0 Bft) 0 min 6,7 km/h (2 Bft)
14.09.2009 02:16 19,6 C 12,3 C 0,0 UV-I 0,0 C 60 % 91 % 0 % 1021,0 hPa 0,0 l/m 0,7 km/h (0 Bft) 0 min 0,0 km/h (0 Bft)
14.09.2009 02:30 19,6 C 12,5 C 0,0 UV-I 0,0 C 60 % 91 % 0 % 1021,0 hPa 0,0 l/m 1,0 km/h (0 Bft) 0 min 7,9 km/h (2 Bft)
14.09.2009 02:36 19,6 C 12,4 C 0,0 UV-I 0,0 C 60 % 91 % 0 % 1020,9 hPa 0,0 l/m 0,5 km/h (0 Bft) 0 min 0,0 km/h (0 Bft)
14.09.2009 02:42 19,7 C 12,5 C 0,0 UV-I 0,0 C 60 % 91 % 0 % 1020,9 hPa 0,0 l/m 0,2 km/h (0 Bft) 0 min 0,0 km/h (0 Bft)
14.09.2009 02:46 19,7 C 12,5 C 0,0 UV-I 0,0 C 60 % 91 % 0 % 1020,9 hPa 0,0 l/m 0,5 km/h (0 Bft) 0 min 2,9 km/h (1 Bft)
14.09.2009 02:50 19,7 C 12,5 C 0,0 UV-I 0,0 C 60 % 91 % 0 % 1020,9 hPa 0,0 l/m 0,7 km/h (0 Bft) 0 min 3,6 km/h (1 Bft)
14.09.2009 02:54 19,7 C 12,5 C 0,0 UV-I 0,0 C 60 % 91 % 0 % 1020,9 hPa 0,0 l/m 0,7 km/h (0 Bft) 0 min 0,0 km/h (0 Bft)
14.09.2009 02:56 19,7 C 12,5 C 0,0 UV-I 0,0 C 60 % 91 % 0 % 1020,7 hPa 0,0 l/m 0,7 km/h (0 Bft) 0 min 2,9 km/h (1 Bft)
14.09.2009 02:58 19,7 C 12,5 C 0,0 UV-I 0,0 C 60 % 91 % 0 % 1020,7 hPa 0,0 l/m 1,0 km/h (0 Bft) 0 min 3,6 km/h (1 Bft)
14.09.2009 03:00 19,7 C 12,6 C 0,0 UV-I 0,0 C 60 % 91 % 0 % 1020,7 hPa 0,0 l/m 0,7 km/h (0 Bft) 0 min 0,0 km/h (0 Bft)
14.09.2009 03:04 19,7 C 12,7 C 0,0 UV-I 0,0 C 60 % 91 % 0 % 1020,7 hPa 0,0 l/m 0,5 km/h (0 Bft) 0 min 0,0 km/h (0 Bft)
14.09.2009 03:06 19,7 C 12,6 C 0,0 UV-I 0,0 C 60 % 91 % 0 % 1020,7 hPa 0,0 l/m 0,5 km/h (0 Bft) 0 min 2,6 km/h (1 Bft)
14.09.2009 03:08 19,7 C 12,7 C 0,0 UV-I 0,0 C 60 % 91 % 0 % 1020,7 hPa 0,0 l/m 0,2 km/h (0 Bft) 0 min 2,6 km/h (1 Bft)
14.09.2009 03:12 19,7 C 12,7 C 0,0 UV-I 0,0 C 60 % 91 % 0 % 1020,7 hPa 0,0 l/m 0,5 km/h (0 Bft) 0 min 4,6 km/h (1 Bft)
14.09.2009 03:18 19,7 C 12,6 C 0,0 UV-I 0,0 C 60 % 91 % 0 % 1020,8 hPa 0,0 l/m 0,7 km/h (0 Bft) 0 min 2,4 km/h (1 Bft)
14.09.2009 03:20 19,7 C 12,6 C 0,0 UV-I 0,0 C 60 % 91 % 0 % 1020,8 hPa 0,0 l/m 1,0 km/h (0 Bft) 0 min 4,1 km/h (1 Bft)
14.09.2009 03:24 19,7 C 12,7 C 0,0 UV-I 0,0 C 60 % 91 % 0 % 1020,8 hPa 0,0 l/m 1,2 km/h (1 Bft) 0 min 0,0 km/h (0 Bft)
14.09.2009 03:26 19,7 C 12,7 C 0,0 UV-I 0,0 C 60 % 91 % 0 % 1020,8 hPa 0,0 l/m 1,2 km/h (1 Bft) 0 min 0,0 km/h (0 Bft)
14.09.2009 03:28 19,7 C 12,7 C 0,0 UV-I 0,0 C 60 % 91 % 0 % 1020,8 hPa 0,0 l/m 1,0 km/h (0 Bft) 0 min 0,0 km/h (0 Bft)
14.09.2009 03:29 19,7 C 12,7 C 0,0 UV-I 0,0 C 60 % 91 % 0 % 1020,8 hPa 0,0 l/m 1,0 km/h (0 Bft) 0 min 0,0 km/h (0 Bft)
14.09.2009 03:34 19,7 C 12,7 C 0,0 UV-I 0,0 C 60 % 91 % 0 % 1020,8 hPa 0,0 l/m 0,2 km/h (0 Bft) 0 min 0,0 km/h (0 Bft)
14.09.2009 03:39 19,7 C 12,8 C 0,0 UV-I 0,0 C 60 % 91 % 0 % 1020,8 hPa 0,0 l/m 1,0 km/h (0 Bft) 0 min 4,6 km/h (1 Bft)
14.09.2009 03:44 19,7 C 12,8 C 0,0 UV-I 0,0 C 60 % 91 % 0 % 1020,8 hPa 0,0 l/m 1,4 km/h (1 Bft) 0 min 3,1 km/h (1 Bft)
14.09.2009 03:49 19,7 C 12,8 C 0,0 UV-I 0,0 C 60 % 91 % 0 % 1020,8 hPa 0,0 l/m 1,7 km/h (1 Bft) 0 min 3,1 km/h (1 Bft)
14.09.2009 03:54 19,7 C 12,8 C 0,0 UV-I 0,0 C 60 % 91 % 0 % 1020,8 hPa 0,0 l/m 1,2 km/h (1 Bft) 0 min 2,9 km/h (1 Bft)
14.09.2009 03:59 19,7 C 12,9 C 0,0 UV-I 0,0 C 60 % 91 % 0 % 1020,7 hPa 0,0 l/m 1,0 km/h (0 Bft) 0 min 3,4 km/h (1 Bft)
14.09.2009 04:04 19,7 C 12,9 C 0,0 UV-I 0,0 C 60 % 91 % 0 % 1020,7 hPa 0,0 l/m 1,0 km/h (0 Bft) 0 min 0,0 km/h (0 Bft)
14.09.2009 04:09 19,7 C 12,8 C 0,0 UV-I 0,0 C 60 % 91 % 0 % 1020,7 hPa 0,0 l/m 1,0 km/h (0 Bft) 0 min 4,6 km/h (1 Bft)
14.09.2009 04:14 19,7 C 12,8 C 0,0 UV-I 0,0 C 60 % 91 % 0 % 1020,7 hPa 0,0 l/m 1,0 km/h (0 Bft) 0 min 3,4 km/h (1 Bft)
14.09.2009 04:15 19,7 C 12,8 C 0,0 UV-I 0,0 C 60 % 91 % 0 % 1020,7 hPa 0,0 l/m 1,2 km/h (1 Bft) 0 min 4,6 km/h (1 Bft)
14.09.2009 04:16 19,7 C 12,8 C 0,0 UV-I 0,0 C 60 % 91 % 0 % 1020,7 hPa 0,0 l/m 1,2 km/h (1 Bft) 0 min 4,6 km/h (1 Bft)
14.09.2009 04:18 19,7 C 12,8 C 0,0 UV-I 0,0 C 60 % 91 % 0 % 1020,7 hPa 0,0 l/m 1,4 km/h (1 Bft) 0 min 0,0 km/h (0 Bft)
14.09.2009 04:20 19,8 C 12,8 C 0,0 UV-I 0,0 C 60 % 91 % 0 % 1020,7 hPa 0,0 l/m 1,2 km/h (1 Bft) 0 min 3,1 km/h (1 Bft)
14.09.2009 04:22 19,7 C 12,8 C 0,0 UV-I 0,0 C 60 % 91 % 0 % 1020,7 hPa 0,0 l/m 1,2 km/h (1 Bft) 0 min 2,6 km/h (1 Bft)
14.09.2009 04:24 19,8 C 12,8 C 0,0 UV-I 0,0 C 60 % 91 % 0 % 1020,7 hPa 0,0 l/m 1,2 km/h (1 Bft) 0 min 4,1 km/h (1 Bft)
14.09.2009 04:26 19,7 C 12,8 C 0,0 UV-I 0,0 C 60 % 91 % 0 % 1020,7 hPa 0,0 l/m 1,0 km/h (0 Bft) 0 min 2,4 km/h (1 Bft)
14.09.2009 04:28 19,7 C 12,8 C 0,0 UV-I 0,0 C 60 % 91 % 0 % 1020,7 hPa 0,0 l/m 0,7 km/h (0 Bft) 0 min 2,4 km/h (1 Bft)
14.09.2009 04:30 19,8 C 12,8 C 0,0 UV-I 0,0 C 60 % 91 % 0 % 1020,7 hPa 0,0 l/m 1,0 km/h (0 Bft) 0 min 2,6 km/h (1 Bft)
14.09.2009 04:32 19,8 C 12,8 C 0,0 UV-I 0,0 C 60 % 91 % 0 % 1020,7 hPa 0,0 l/m 1,0 km/h (0 Bft) 0 min 3,6 km/h (1 Bft)
14.09.2009 04:34 19,7 C 12,8 C 0,0 UV-I 0,0 C 60 % 91 % 0 % 1020,7 hPa 0,0 l/m 1,2 km/h (1 Bft) 0 min 2,4 km/h (1 Bft)
14.09.2009 04:36 19,7 C 12,8 C 0,0 UV-I 0,0 C 60 % 91 % 0 % 1020,6 hPa 0,0 l/m 1,4 km/h (1 Bft) 0 min 3,1 km/h (1 Bft)
14.09.2009 04:38 19,7 C 12,8 C 0,0 UV-I 0,0 C 60 % 91 % 0 % 1020,6 hPa 0,0 l/m 1,9 km/h (1 Bft) 0 min 4,1 km/h (1 Bft)
14.09.2009 04:40 19,7 C 12,8 C 0,0 UV-I 0,0 C 60 % 91 % 0 % 1020,6 hPa 0,0 l/m 1,9 km/h (1 Bft) 0 min 4,6 km/h (1 Bft)
14.09.2009 04:42 19,8 C 12,8 C 0,0 UV-I 0,0 C 60 % 91 % 0 % 1020,6 hPa 0,0 l/m 1,7 km/h (1 Bft) 0 min 0,0 km/h (0 Bft)
14.09.2009 04:44 19,7 C 12,8 C 0,0 UV-I 0,0 C 60 % 90 % 0 % 1020,6 hPa 0,0 l/m 1,7 km/h (1 Bft) 0 min 3,8 km/h (1 Bft)
14.09.2009 04:46 19,7 C 12,8 C 0,0 UV-I 0,0 C 60 % 90 % 0 % 1020,6 hPa 0,0 l/m 1,9 km/h (1 Bft) 0 min 3,1 km/h (1 Bft)
14.09.2009 04:48 19,7 C 12,8 C 0,0 UV-I 0,0 C 60 % 90 % 0 % 1020,6 hPa 0,0 l/m 1,4 km/h (1 Bft) 0 min 0,0 km/h (0 Bft)
14.09.2009 04:50 19,7 C 12,8 C 0,0 UV-I 0,0 C 60 % 90 % 0 % 1020,6 hPa 0,0 l/m 1,2 km/h (1 Bft) 0 min 2,4 km/h (1 Bft)
14.09.2009 04:52 19,7 C 12,8 C 0,0 UV-I 0,0 C 60 % 90 % 0 % 1020,6 hPa 0,0 l/m 1,0 km/h (0 Bft) 0 min 5,1 km/h (1 Bft)
14.09.2009 04:54 19,8 C 12,8 C 0,0 UV-I 0,0 C 60 % 90 % 0 % 1020,6 hPa 0,0 l/m 1,0 km/h (0 Bft) 0 min 0,0 km/h (0 Bft)
14.09.2009 04:56 19,8 C 12,8 C 0,0 UV-I 0,0 C 60 % 90 % 0 % 1020,7 hPa 0,0 l/m 0,5 km/h (0 Bft) 0 min 0,0 km/h (0 Bft)
14.09.2009 04:58 19,8 C 12,9 C 0,0 UV-I 0,0 C 60 % 90 % 0 % 1020,7 hPa 0,0 l/m 0,2 km/h (0 Bft) 0 min 0,0 km/h (0 Bft)
14.09.2009 05:00 19,8 C 12,9 C 0,0 UV-I 0,0 C 60 % 90 % 0 % 1020,7 hPa 0,0 l/m 0,2 km/h (0 Bft) 0 min 0,0 km/h (0 Bft)
14.09.2009 05:02 19,7 C 12,9 C 0,0 UV-I 0,0 C 60 % 90 % 0 % 1020,7 hPa 0,0 l/m 0,5 km/h (0 Bft) 0 min 0,0 km/h (0 Bft)
14.09.2009 05:04 19,8 C 12,9 C 0,0 UV-I 0,0 C 60 % 90 % 0 % 1020,7 hPa 0,0 l/m 0,2 km/h (0 Bft) 0 min 0,0 km/h (0 Bft)
14.09.2009 05:06 19,7 C 12,9 C 0,0 UV-I 0,0 C 60 % 90 % 0 % 1020,7 hPa 0,0 l/m 0,5 km/h (0 Bft) 0 min 4,3 km/h (1 Bft)
14.09.2009 05:08 19,7 C 12,9 C 0,0 UV-I 0,0 C 60 % 90 % 0 % 1020,7 hPa 0,0 l/m 0,5 km/h (0 Bft) 0 min 2,6 km/h (1 Bft)
14.09.2009 05:10 19,8 C 12,9 C 0,0 UV-I 0,0 C 60 % 90 % 0 % 1020,7 hPa 0,0 l/m 0,7 km/h (0 Bft) 0 min 2,9 km/h (1 Bft)
14.09.2009 05:12 19,8 C 12,9 C 0,0 UV-I 0,0 C 60 % 90 % 0 % 1020,7 hPa 0,0 l/m 0,7 km/h (0 Bft) 0 min 3,6 km/h (1 Bft)
14.09.2009 05:14 19,7 C 12,8 C 0,0 UV-I 0,0 C 60 % 90 % 0 % 1020,7 hPa 0,0 l/m 0,7 km/h (0 Bft) 0 min 0,0 km/h (0 Bft)
14.09.2009 05:16 19,7 C 12,9 C 0,0 UV-I 0,0 C 60 % 90 % 0 % 1020,6 hPa 0,0 l/m 1,0 km/h (0 Bft) 0 min 2,6 km/h (1 Bft)
14.09.2009 05:18 19,7 C 12,9 C 0,0 UV-I 0,0 C 60 % 90 % 0 % 1020,6 hPa 0,0 l/m 1,2 km/h (1 Bft) 0 min 0,0 km/h (0 Bft)
14.09.2009 05:20 19,7 C 12,8 C 0,0 UV-I 0,0 C 60 % 90 % 0 % 1020,6 hPa 0,0 l/m 1,2 km/h (1 Bft) 0 min 3,1 km/h (1 Bft)
14.09.2009 05:22 19,7 C 12,9 C 0,0 UV-I 0,0 C 60 % 90 % 0 % 1020,6 hPa 0,0 l/m 1,4 km/h (1 Bft) 0 min 5,1 km/h (1 Bft)
14.09.2009 05:24 19,8 C 12,9 C 0,0 UV-I 0,0 C 60 % 90 % 0 % 1020,6 hPa 0,0 l/m 1,7 km/h (1 Bft) 0 min 0,0 km/h (0 Bft)
14.09.2009 05:26 19,7 C 12,8 C 0,0 UV-I 0,0 C 60 % 90 % 0 % 1020,6 hPa 0,0 l/m 1,9 km/h (1 Bft) 0 min 3,1 km/h (1 Bft)
14.09.2009 05:28 19,7 C 12,9 C 0,0 UV-I 0,0 C 60 % 90 % 0 % 1020,6 hPa 0,0 l/m 1,9 km/h (1 Bft) 0 min 0,0 km/h (0 Bft)
14.09.2009 05:30 19,7 C 12,8 C 0,0 UV-I 0,0 C 60 % 90 % 0 % 1020,6 hPa 0,0 l/m 1,9 km/h (1 Bft) 0 min 0,0 km/h (0 Bft)
14.09.2009 05:32 19,7 C 12,8 C 0,0 UV-I 0,0 C 60 % 90 % 0 % 1020,6 hPa 0,0 l/m 1,7 km/h (1 Bft) 0 min 0,0 km/h (0 Bft)
14.09.2009 05:34 19,7 C 12,8 C 0,0 UV-I 0,0 C 60 % 90 % 0 % 1020,6 hPa 0,0 l/m 1,0 km/h (0 Bft) 0 min 4,8 km/h (1 Bft)
14.09.2009 05:36 19,7 C 12,8 C 0,0 UV-I 0,0 C 60 % 90 % 0 % 1020,4 hPa 0,0 l/m 1,0 km/h (0 Bft) 0 min 3,4 km/h (1 Bft)
14.09.2009 05:38 19,7 C 12,8 C 0,0 UV-I 0,0 C 60 % 90 % 0 % 1020,4 hPa 0,0 l/m 1,0 km/h (0 Bft) 0 min 2,4 km/h (1 Bft)
14.09.2009 05:40 19,7 C 12,8 C 0,0 UV-I 0,0 C 60 % 90 % 0 % 1020,4 hPa 0,0 l/m 1,0 km/h (0 Bft) 0 min 3,8 km/h (1 Bft)
14.09.2009 05:42 19,7 C 12,8 C 0,0 UV-I 0,0 C 60 % 90 % 0 % 1020,4 hPa 0,0 l/m 1,0 km/h (0 Bft) 0 min 2,4 km/h (1 Bft)
14.09.2009 05:44 19,7 C 12,8 C 0,0 UV-I 0,0 C 60 % 90 % 0 % 1020,4 hPa 0,0 l/m 1,0 km/h (0 Bft) 0 min 0,0 km/h (0 Bft)
14.09.2009 05:46 19,7 C 12,8 C 0,0 UV-I 0,0 C 60 % 90 % 0 % 1020,4 hPa 0,0 l/m 0,7 km/h (0 Bft) 0 min 0,0 km/h (0 Bft)
14.09.2009 05:48 19,7 C 12,8 C 0,0 UV-I 0,0 C 60 % 90 % 0 % 1020,4 hPa 0,0 l/m 0,5 km/h (0 Bft) 0 min 2,9 km/h (1 Bft)
14.09.2009 05:50 19,7 C 12,8 C 0,0 UV-I 0,0 C 60 % 90 % 0 % 1020,4 hPa 0,0 l/m 0,5 km/h (0 Bft) 0 min 0,0 km/h (0 Bft)
14.09.2009 05:52 19,8 C 12,8 C 0,0 UV-I 0,0 C 60 % 90 % 0 % 1020,4 hPa 0,0 l/m 0,2 km/h (0 Bft) 0 min 2,6 km/h (1 Bft)
14.09.2009 05:54 19,7 C 12,7 C 0,0 UV-I 0,0 C 60 % 90 % 0 % 1020,4 hPa 0,0 l/m 0,2 km/h (0 Bft) 0 min 0,0 km/h (0 Bft)
14.09.2009 05:56 19,7 C 12,8 C 0,0 UV-I 0,0 C 60 % 90 % 0 % 1020,2 hPa 0,0 l/m 0,5 km/h (0 Bft) 0 min 2,6 km/h (1 Bft)
14.09.2009 05:58 19,7 C 12,8 C 0,0 UV-I 0,0 C 60 % 90 % 0 % 1020,2 hPa 0,0 l/m 1,0 km/h (0 Bft) 0 min 0,0 km/h (0 Bft)
14.09.2009 06:00 19,7 C 12,8 C 0,0 UV-I 0,0 C 60 % 90 % 0 % 1020,2 hPa 0,0 l/m 1,2 km/h (1 Bft) 0 min 3,4 km/h (1 Bft)
14.09.2009 06:02 19,7 C 12,8 C 0,0 UV-I 0,0 C 60 % 90 % 0 % 1020,2 hPa 0,0 l/m 1,2 km/h (1 Bft) 0 min 0,0 km/h (0 Bft)
14.09.2009 06:04 19,7 C 12,8 C 0,0 UV-I 0,0 C 60 % 90 % 0 % 1020,2 hPa 0,0 l/m 1,2 km/h (1 Bft) 0 min 0,0 km/h (0 Bft)
14.09.2009 06:06 19,7 C 12,8 C 0,0 UV-I 0,0 C 60 % 90 % 0 % 1020,2 hPa 0,0 l/m 1,2 km/h (1 Bft) 0 min 0,0 km/h (0 Bft)
14.09.2009 06:08 19,7 C 12,8 C 0,0 UV-I 0,0 C 60 % 90 % 0 % 1020,2 hPa 0,0 l/m 1,2 km/h (1 Bft) 0 min 0,0 km/h (0 Bft)
14.09.2009 06:10 19,7 C 12,8 C 0,0 UV-I 0,0 C 60 % 90 % 0 % 1020,2 hPa 0,0 l/m 1,2 km/h (1 Bft) 0 min 0,0 km/h (0 Bft)
14.09.2009 06:12 19,7 C 12,8 C 0,0 UV-I 0,0 C 60 % 90 % 0 % 1020,2 hPa 0,0 l/m 1,2 km/h (1 Bft) 0 min 0,0 km/h (0 Bft)
14.09.2009 06:14 19,7 C 12,7 C 0,0 UV-I 0,0 C 60 % 90 % 0 % 1020,2 hPa 0,0 l/m 0,5 km/h (0 Bft) 0 min 0,0 km/h (0 Bft)
14.09.2009 06:16 19,7 C 12,7 C 0,0 UV-I 0,0 C 60 % 90 % 0 % 1020,4 hPa 0,0 l/m 0,2 km/h (0 Bft) 0 min 0,0 km/h (0 Bft)
14.09.2009 06:18 19,7 C 12,7 C 0,0 UV-I 0,0 C 60 % 90 % 0 % 1020,4 hPa 0,0 l/m 0,5 km/h (0 Bft) 0 min 0,0 km/h (0 Bft)
14.09.2009 06:20 19,7 C 12,7 C 0,0 UV-I 0,0 C 60 % 90 % 0 % 1020,4 hPa 0,0 l/m 0,2 km/h (0 Bft) 0 min 0,0 km/h (0 Bft)
14.09.2009 06:22 19,7 C 12,7 C 0,0 UV-I 0,0 C 60 % 90 % 0 % 1020,4 hPa 0,0 l/m 0,2 km/h (0 Bft) 0 min 0,0 km/h (0 Bft)
14.09.2009 06:24 19,7 C 12,7 C 0,0 UV-I 0,0 C 60 % 90 % 0 % 1020,4 hPa 0,0 l/m 0,2 km/h (0 Bft) 0 min 0,0 km/h (0 Bft)
14.09.2009 06:26 19,7 C 12,7 C 0,0 UV-I 0,0 C 60 % 90 % 0 % 1020,4 hPa 0,0 l/m 0,2 km/h (0 Bft) 0 min 0,0 km/h (0 Bft)
14.09.2009 06:28 19,7 C 12,7 C 0,0 UV-I 0,0 C 60 % 90 % 0 % 1020,4 hPa 0,0 l/m 0,2 km/h (0 Bft) 0 min 2,6 km/h (1 Bft)
14.09.2009 06:30 19,7 C 12,7 C 0,0 UV-I 0,0 C 60 % 90 % 0 % 1020,4 hPa 0,0 l/m 0,5 km/h (0 Bft) 0 min 2,9 km/h (1 Bft)
14.09.2009 06:32 19,7 C 12,7 C 0,0 UV-I 0,0 C 60 % 90 % 0 % 1020,4 hPa 0,0 l/m 0,7 km/h (0 Bft) 0 min 2,6 km/h (1 Bft)
14.09.2009 06:34 19,7 C 12,7 C 0,0 UV-I 0,0 C 60 % 90 % 0 % 1020,4 hPa 0,0 l/m 0,7 km/h (0 Bft) 0 min 0,0 km/h (0 Bft)
14.09.2009 06:36 19,7 C 12,7 C 0,0 UV-I 0,0 C 60 % 90 % 0 % 1020,1 hPa 0,0 l/m 0,5 km/h (0 Bft) 0 min 0,0 km/h (0 Bft)
14.09.2009 06:38 19,7 C 12,7 C 0,0 UV-I 0,0 C 60 % 90 % 0 % 1020,1 hPa 0,0 l/m 0,5 km/h (0 Bft) 0 min 0,0 km/h (0 Bft)
14.09.2009 06:40 19,7 C 12,7 C 0,0 UV-I 0,0 C 60 % 90 % 0 % 1020,1 hPa 0,0 l/m 0,7 km/h (0 Bft) 0 min 0,0 km/h (0 Bft)
14.09.2009 06:42 19,7 C 12,7 C 0,0 UV-I 0,0 C 60 % 90 % 0 % 1020,1 hPa 0,0 l/m 0,5 km/h (0 Bft) 0 min 0,0 km/h (0 Bft)
14.09.2009 06:44 19,7 C 12,7 C 0,0 UV-I 0,0 C 60 % 90 % 0 % 1020,1 hPa 0,0 l/m 0,5 km/h (0 Bft) 0 min 2,6 km/h (1 Bft)
14.09.2009 06:46 19,7 C 12,7 C 0,0 UV-I 0,0 C 60 % 90 % 0 % 1020,1 hPa 0,0 l/m 0,7 km/h (0 Bft) 0 min 3,4 km/h (1 Bft)
14.09.2009 06:48 19,7 C 12,7 C 0,0 UV-I 0,0 C 60 % 90 % 0 % 1020,1 hPa 0,0 l/m 1,0 km/h (0 Bft) 0 min 2,4 km/h (1 Bft)
14.09.2009 06:50 19,7 C 12,7 C 0,0 UV-I 0,0 C 60 % 90 % 0 % 1020,1 hPa 0,0 l/m 0,7 km/h (0 Bft) 0 min 0,0 km/h (0 Bft)
14.09.2009 06:52 19,7 C 12,7 C 0,0 UV-I 0,0 C 60 % 90 % 0 % 1020,1 hPa 0,0 l/m 0,5 km/h (0 Bft) 0 min 0,0 km/h (0 Bft)
14.09.2009 06:54 19,7 C 12,7 C 0,0 UV-I 0,0 C 60 % 90 % 0 % 1020,1 hPa 0,0 l/m 0,5 km/h (0 Bft) 0 min 0,0 km/h (0 Bft)
14.09.2009 06:56 19,7 C 12,7 C 0,0 UV-I 0,0 C 60 % 90 % 0 % 1020,4 hPa 0,0 l/m 0,7 km/h (0 Bft) 0 min 0,0 km/h (0 Bft)
14.09.2009 06:58 19,7 C 12,7 C 0,0 UV-I 0,0 C 60 % 90 % 0 % 1020,4 hPa 0,0 l/m 0,5 km/h (0 Bft) 0 min 0,0 km/h (0 Bft)
14.09.2009 07:00 19,7 C 12,7 C 0,0 UV-I 0,0 C 60 % 89 % 0 % 1020,4 hPa 0,0 l/m 0,5 km/h (0 Bft) 0 min 3,6 km/h (1 Bft)
14.09.2009 07:02 19,7 C 12,6 C 0,0 UV-I 0,0 C 60 % 89 % 0 % 1020,4 hPa 0,0 l/m 0,5 km/h (0 Bft) 0 min 0,0 km/h (0 Bft)
14.09.2009 07:04 19,7 C 12,6 C 0,0 UV-I 0,0 C 60 % 89 % 0 % 1020,4 hPa 0,0 l/m 0,7 km/h (0 Bft) 0 min 0,0 km/h (0 Bft)
14.09.2009 07:06 19,7 C 12,6 C 0,0 UV-I 0,0 C 60 % 89 % 0 % 1020,4 hPa 0,0 l/m 0,7 km/h (0 Bft) 0 min 2,6 km/h (1 Bft)
14.09.2009 07:08 19,7 C 12,7 C 0,0 UV-I 0,0 C 60 % 89 % 0 % 1020,4 hPa 0,0 l/m 0,7 km/h (0 Bft) 0 min 4,8 km/h (1 Bft)
14.09.2009 07:10 19,7 C 12,7 C 0,0 UV-I 0,0 C 60 % 89 % 0 % 1020,4 hPa 0,0 l/m 0,7 km/h (0 Bft) 0 min 0,0 km/h (0 Bft)
14.09.2009 07:12 19,7 C 12,6 C 0,0 UV-I 0,0 C 60 % 89 % 0 % 1020,4 hPa 0,0 l/m 0,7 km/h (0 Bft) 0 min 0,0 km/h (0 Bft)
14.09.2009 07:14 19,7 C 12,7 C 0,0 UV-I 0,0 C 60 % 89 % 0 % 1020,4 hPa 0,0 l/m 1,0 km/h (0 Bft) 0 min 0,0 km/h (0 Bft)
14.09.2009 07:16 19,7 C 12,6 C 0,0 UV-I 0,0 C 60 % 89 % 0 % 1020,2 hPa 0,0 l/m 1,0 km/h (0 Bft) 0 min 0,0 km/h (0 Bft)
14.09.2009 07:18 19,7 C 12,5 C 0,0 UV-I 0,0 C 60 % 89 % 0 % 1020,2 hPa 0,0 l/m 1,4 km/h (1 Bft) 0 min 0,0 km/h (0 Bft)
14.09.2009 07:20 19,7 C 12,5 C 0,0 UV-I 0,0 C 60 % 89 % 0 % 1020,2 hPa 0,0 l/m 1,4 km/h (1 Bft) 0 min 4,6 km/h (1 Bft)
14.09.2009 07:22 19,7 C 12,4 C 0,0 UV-I 0,0 C 60 % 89 % 0 % 1020,2 hPa 0,0 l/m 1,7 km/h (1 Bft) 0 min 3,4 km/h (1 Bft)
14.09.2009 07:24 19,7 C 12,5 C 0,0 UV-I 0,0 C 60 % 89 % 0 % 1020,2 hPa 0,0 l/m 1,7 km/h (1 Bft) 0 min 2,4 km/h (1 Bft)
14.09.2009 07:26 19,6 C 12,5 C 0,0 UV-I 0,0 C 60 % 89 % 0 % 1020,2 hPa 0,0 l/m 1,4 km/h (1 Bft) 0 min 0,0 km/h (0 Bft)
14.09.2009 07:28 19,6 C 12,5 C 0,0 UV-I 0,0 C 60 % 89 % 0 % 1020,2 hPa 0,0 l/m 1,2 km/h (1 Bft) 0 min 2,9 km/h (1 Bft)
14.09.2009 07:30 19,6 C 12,5 C 0,0 UV-I 0,0 C 60 % 89 % 0 % 1020,2 hPa 0,0 l/m 1,2 km/h (1 Bft) 0 min 3,4 km/h (1 Bft)
14.09.2009 07:32 19,6 C 12,5 C 0,0 UV-I 0,0 C 60 % 89 % 0 % 1020,2 hPa 0,0 l/m 1,0 km/h (0 Bft) 0 min 0,0 km/h (0 Bft)
14.09.2009 07:34 19,6 C 12,5 C 0,0 UV-I 0,0 C 60 % 89 % 0 % 1020,2 hPa 0,0 l/m 0,7 km/h (0 Bft) 0 min 0,0 km/h (0 Bft)
14.09.2009 07:36 19,6 C 12,5 C 0,0 UV-I 0,0 C 60 % 90 % 0 % 1020,4 hPa 0,0 l/m 0,7 km/h (0 Bft) 0 min 3,6 km/h (1 Bft)
14.09.2009 07:38 19,6 C 12,5 C 0,0 UV-I 0,0 C 60 % 89 % 0 % 1020,4 hPa 0,0 l/m 1,0 km/h (0 Bft) 0 min 2,9 km/h (1 Bft)
14.09.2009 07:40 19,6 C 12,5 C 0,0 UV-I 0,0 C 60 % 89 % 0 % 1020,4 hPa 0,0 l/m 1,2 km/h (1 Bft) 0 min 0,0 km/h (0 Bft)
14.09.2009 07:42 19,6 C 12,5 C 0,0 UV-I 0,0 C 60 % 89 % 0 % 1020,4 hPa 0,0 l/m 1,2 km/h (1 Bft) 0 min 0,0 km/h (0 Bft)
14.09.2009 07:44 19,6 C 12,4 C 0,0 UV-I 0,0 C 60 % 89 % 0 % 1020,4 hPa 0,0 l/m 1,4 km/h (1 Bft) 0 min 3,6 km/h (1 Bft)
14.09.2009 07:46 19,6 C 12,5 C 0,0 UV-I 0,0 C 60 % 89 % 0 % 1020,4 hPa 0,0 l/m 1,9 km/h (1 Bft) 0 min 2,4 km/h (1 Bft)
14.09.2009 07:48 19,6 C 12,5 C 0,0 UV-I 0,0 C 60 % 89 % 0 % 1020,4 hPa 0,0 l/m 1,7 km/h (1 Bft) 0 min 3,1 km/h (1 Bft)
14.09.2009 07:50 19,6 C 12,5 C 0,0 UV-I 0,0 C 60 % 89 % 0 % 1020,4 hPa 0,0 l/m 1,4 km/h (1 Bft) 0 min 3,6 km/h (1 Bft)
14.09.2009 07:52 19,6 C 12,6 C 0,0 UV-I 0,0 C 60 % 89 % 0 % 1020,4 hPa 0,0 l/m 1,4 km/h (1 Bft) 0 min 0,0 km/h (0 Bft)
14.09.2009 07:54 19,7 C 12,6 C 0,0 UV-I 0,0 C 60 % 89 % 0 % 1020,4 hPa 0,0 l/m 1,7 km/h (1 Bft) 0 min 3,8 km/h (1 Bft)
14.09.2009 07:56 19,7 C 12,7 C 0,0 UV-I 0,0 C 60 % 89 % 0 % 1020,6 hPa 0,0 l/m 1,7 km/h (1 Bft) 0 min 3,1 km/h (1 Bft)
14.09.2009 07:58 19,7 C 12,7 C 0,0 UV-I 0,0 C 60 % 89 % 0 % 1020,6 hPa 0,0 l/m 1,7 km/h (1 Bft) 0 min 3,1 km/h (1 Bft)
14.09.2009 08:02 19,7 C 12,7 C 0,0 UV-I 0,0 C 60 % 89 % 0 % 1020,6 hPa 0,0 l/m 1,7 km/h (1 Bft) 0 min 3,8 km/h (1 Bft)
14.09.2009 08:04 19,7 C 12,7 C 0,1 UV-I 0,0 C 60 % 89 % 0 % 1020,6 hPa 0,0 l/m 1,7 km/h (1 Bft) 0 min 3,6 km/h (1 Bft)
14.09.2009 08:06 19,7 C 12,7 C 0,1 UV-I 0,0 C 60 % 89 % 0 % 1020,6 hPa 0,0 l/m 1,4 km/h (1 Bft) 0 min 3,4 km/h (1 Bft)
14.09.2009 08:08 19,7 C 12,6 C 0,1 UV-I 0,0 C 60 % 89 % 0 % 1020,6 hPa 0,0 l/m 1,2 km/h (1 Bft) 0 min 0,0 km/h (0 Bft)
14.09.2009 08:10 19,8 C 12,7 C 0,1 UV-I 0,0 C 60 % 89 % 0 % 1020,6 hPa 0,0 l/m 1,0 km/h (0 Bft) 0 min 0,0 km/h (0 Bft)
14.09.2009 08:12 19,7 C 12,7 C 0,1 UV-I 0,0 C 60 % 89 % 0 % 1020,6 hPa 0,0 l/m 0,7 km/h (0 Bft) 0 min 0,0 km/h (0 Bft)
14.09.2009 08:14 19,8 C 12,7 C 0,0 UV-I 0,0 C 60 % 89 % 0 % 1020,6 hPa 0,0 l/m 0,5 km/h (0 Bft) 0 min 2,4 km/h (1 Bft)
14.09.2009 08:16 19,8 C 12,7 C 0,0 UV-I 0,0 C 60 % 89 % 0 % 1020,8 hPa 0,0 l/m 1,0 km/h (0 Bft) 0 min 4,1 km/h (1 Bft)
14.09.2009 08:18 19,8 C 12,7 C 0,0 UV-I 0,0 C 60 % 89 % 0 % 1020,8 hPa 0,0 l/m 1,0 km/h (0 Bft) 0 min 2,4 km/h (1 Bft)
14.09.2009 08:20 19,8 C 12,7 C 0,0 UV-I 0,0 C 60 % 89 % 0 % 1020,8 hPa 0,0 l/m 1,2 km/h (1 Bft) 0 min 5,5 km/h (1 Bft)
14.09.2009 08:22 19,8 C 12,6 C 0,0 UV-I 0,0 C 61 % 89 % 0 % 1020,8 hPa 0,0 l/m 1,4 km/h (1 Bft) 0 min 3,8 km/h (1 Bft)
14.09.2009 08:24 19,8 C 12,7 C 0,2 UV-I 0,0 C 61 % 89 % 0 % 1020,8 hPa 0,0 l/m 1,9 km/h (1 Bft) 0 min 2,6 km/h (1 Bft)
14.09.2009 08:26 19,8 C 12,6 C 0,2 UV-I 0,0 C 61 % 89 % 0 % 1020,8 hPa 0,0 l/m 1,7 km/h (1 Bft) 0 min 3,6 km/h (1 Bft)
14.09.2009 08:28 19,8 C 12,7 C 0,1 UV-I 0,0 C 61 % 89 % 0 % 1020,8 hPa 0,0 l/m 1,7 km/h (1 Bft) 0 min 3,4 km/h (1 Bft)
14.09.2009 08:30 19,8 C 12,7 C 0,1 UV-I 0,0 C 61 % 89 % 0 % 1020,8 hPa 0,0 l/m 1,9 km/h (1 Bft) 0 min 3,6 km/h (1 Bft)
14.09.2009 08:32 19,8 C 12,7 C 0,1 UV-I 0,0 C 61 % 89 % 0 % 1020,8 hPa 0,0 l/m 1,9 km/h (1 Bft) 0 min 4,1 km/h (1 Bft)
14.09.2009 08:34 19,8 C 12,8 C 0,1 UV-I 0,0 C 61 % 89 % 0 % 1020,8 hPa 0,0 l/m 1,9 km/h (1 Bft) 0 min 3,8 km/h (1 Bft)
14.09.2009 08:36 19,8 C 12,7 C 0,1 UV-I 0,0 C 61 % 89 % 0 % 1020,7 hPa 0,0 l/m 1,9 km/h (1 Bft) 0 min 2,9 km/h (1 Bft)
14.09.2009 08:38 19,8 C 12,9 C 0,1 UV-I 0,0 C 61 % 89 % 0 % 1020,7 hPa 0,0 l/m 2,2 km/h (1 Bft) 0 min 2,6 km/h (1 Bft)
14.09.2009 08:40 19,8 C 12,8 C 0,1 UV-I 0,0 C 61 % 89 % 0 % 1020,7 hPa 0,0 l/m 2,4 km/h (1 Bft) 0 min 5,5 km/h (1 Bft)
14.09.2009 08:42 19,8 C 12,9 C 0,1 UV-I 0,0 C 61 % 89 % 0 % 1020,7 hPa 0,0 l/m 2,6 km/h (1 Bft) 0 min 5,1 km/h (1 Bft)
14.09.2009 08:44 19,8 C 12,8 C 0,2 UV-I 0,1 C 61 % 89 % 3 % 1020,7 hPa 0,0 l/m 2,4 km/h (1 Bft) 0 min 4,1 km/h (1 Bft)
14.09.2009 08:46 19,9 C 12,9 C 0,2 UV-I 0,1 C 61 % 89 % 3 % 1020,7 hPa 0,0 l/m 2,4 km/h (1 Bft) 0 min 2,6 km/h (1 Bft)
14.09.2009 08:48 19,9 C 12,9 C 0,4 UV-I 0,1 C 61 % 89 % 3 % 1020,7 hPa 0,0 l/m 2,6 km/h (1 Bft) 0 min 3,8 km/h (1 Bft)
14.09.2009 08:50 19,9 C 12,9 C 0,4 UV-I 0,2 C 61 % 89 % 6 % 1020,7 hPa 0,0 l/m 2,4 km/h (1 Bft) 0 min 0,0 km/h (0 Bft)
14.09.2009 08:52 19,9 C 13,0 C 0,4 UV-I 0,2 C 61 % 89 % 6 % 1020,7 hPa 0,0 l/m 1,9 km/h (1 Bft) 0 min 2,6 km/h (1 Bft)
14.09.2009 08:54 19,9 C 13,1 C 0,4 UV-I 0,1 C 61 % 89 % 3 % 1020,7 hPa 0,0 l/m 1,9 km/h (1 Bft) 0 min 6,3 km/h (2 Bft)
14.09.2009 08:56 19,9 C 13,1 C 0,4 UV-I 0,1 C 61 % 89 % 3 % 1020,6 hPa 0,0 l/m 1,7 km/h (1 Bft) 0 min 0,0 km/h (0 Bft)
14.09.2009 08:58 19,9 C 13,0 C 0,4 UV-I 0,2 C 61 % 89 % 6 % 1020,6 hPa 0,0 l/m 1,7 km/h (1 Bft) 0 min 3,1 km/h (1 Bft)
14.09.2009 09:00 19,9 C 13,1 C 0,4 UV-I 0,1 C 61 % 88 % 3 % 1020,6 hPa 0,0 l/m 1,7 km/h (1 Bft) 0 min 4,8 km/h (1 Bft)
14.09.2009 09:02 19,9 C 13,0 C 0,4 UV-I 0,2 C 61 % 88 % 6 % 1020,6 hPa 0,0 l/m 2,2 km/h (1 Bft) 0 min 3,6 km/h (1 Bft)
14.09.2009 09:04 20,0 C 13,0 C 0,1 UV-I 0,3 C 61 % 88 % 9 % 1020,6 hPa 0,0 l/m 2,4 km/h (1 Bft) 0 min 4,3 km/h (1 Bft)
14.09.2009 09:06 20,0 C 13,0 C 0,1 UV-I 0,3 C 61 % 88 % 9 % 1020,6 hPa 0,0 l/m 2,2 km/h (1 Bft) 0 min 4,6 km/h (1 Bft)
14.09.2009 09:08 20,0 C 13,0 C 0,3 UV-I 0,4 C 61 % 88 % 11 % 1020,6 hPa 0,0 l/m 2,4 km/h (1 Bft) 0 min 3,4 km/h (1 Bft)
14.09.2009 09:10 20,0 C 13,1 C 0,3 UV-I 0,3 C 61 % 88 % 9 % 1020,6 hPa 0,0 l/m 2,2 km/h (1 Bft) 0 min 8,2 km/h (2 Bft)
14.09.2009 09:12 20,0 C 13,2 C 0,3 UV-I 0,3 C 61 % 88 % 9 % 1020,6 hPa 0,0 l/m 1,9 km/h (1 Bft) 0 min 0,0 km/h (0 Bft)
14.09.2009 09:14 20,0 C 13,2 C 0,3 UV-I 0,4 C 61 % 88 % 11 % 1020,6 hPa 0,0 l/m 1,4 km/h (1 Bft) 0 min 0,0 km/h (0 Bft)
14.09.2009 09:16 20,0 C 13,3 C 0,3 UV-I 0,3 C 61 % 88 % 9 % 1020,8 hPa 0,0 l/m 1,0 km/h (0 Bft) 0 min 0,0 km/h (0 Bft)
14.09.2009 09:18 20,0 C 13,3 C 0,3 UV-I 0,4 C 61 % 88 % 11 % 1020,8 hPa 0,0 l/m 0,7 km/h (0 Bft) 0 min 0,0 km/h (0 Bft)
14.09.2009 09:20 20,0 C 13,2 C 0,3 UV-I 0,6 C 61 % 88 % 17 % 1020,8 hPa 0,0 l/m 1,4 km/h (1 Bft) 0 min 5,3 km/h (1 Bft)
14.09.2009 09:22 20,0 C 13,3 C 0,3 UV-I 0,5 C 61 % 88 % 14 % 1020,8 hPa 0,0 l/m 1,7 km/h (1 Bft) 0 min 3,4 km/h (1 Bft)
14.09.2009 09:24 20,0 C 13,4 C 0,4 UV-I 0,5 C 61 % 88 % 14 % 1020,8 hPa 0,0 l/m 2,2 km/h (1 Bft) 0 min 4,1 km/h (1 Bft)
14.09.2009 09:26 20,0 C 13,5 C 0,4 UV-I 0,5 C 61 % 89 % 14 % 1020,8 hPa 0,0 l/m 2,9 km/h (1 Bft) 0 min 5,8 km/h (2 Bft)
14.09.2009 09:28 20,0 C 13,5 C 0,1 UV-I 0,5 C 61 % 88 % 14 % 1020,8 hPa 0,0 l/m 3,8 km/h (1 Bft) 0 min 9,6 km/h (2 Bft)
14.09.2009 09:30 20,0 C 13,4 C 0,1 UV-I 0,6 C 61 % 88 % 17 % 1020,8 hPa 0,0 l/m 3,6 km/h (1 Bft) 0 min 5,5 km/h (1 Bft)
14.09.2009 09:32 20,0 C 13,4 C 0,1 UV-I 0,7 C 61 % 88 % 20 % 1020,8 hPa 0,0 l/m 3,1 km/h (1 Bft) 0 min 9,6 km/h (2 Bft)
14.09.2009 09:34 20,1 C 13,5 C 0,1 UV-I 0,6 C 61 % 88 % 17 % 1020,8 hPa 0,0 l/m 3,4 km/h (1 Bft) 0 min 4,6 km/h (1 Bft)
14.09.2009 09:36 20,0 C 13,5 C 0,1 UV-I 0,5 C 61 % 88 % 14 % 1020,7 hPa 0,0 l/m 3,6 km/h (1 Bft) 0 min 6,5 km/h (2 Bft)
14.09.2009 09:38 20,0 C 13,6 C 0,0 UV-I 0,4 C 61 % 88 % 11 % 1020,7 hPa 0,0 l/m 3,8 km/h (1 Bft) 0 min 9,1 km/h (2 Bft)
14.09.2009 09:40 20,1 C 13,7 C 0,0 UV-I 0,2 C 61 % 88 % 6 % 1020,7 hPa 0,0 l/m 3,8 km/h (1 Bft) 0 min 3,6 km/h (1 Bft)
14.09.2009 09:42 20,1 C 13,7 C 0,0 UV-I 0,1 C 61 % 88 % 3 % 1020,7 hPa 0,0 l/m 4,1 km/h (1 Bft) 0 min 3,4 km/h (1 Bft)
14.09.2009 09:44 20,1 C 13,6 C 0,0 UV-I 0,2 C 61 % 88 % 6 % 1020,7 hPa 0,0 l/m 4,1 km/h (1 Bft) 0 min 7,2 km/h (2 Bft)
14.09.2009 09:46 20,1 C 13,6 C 0,0 UV-I 0,2 C 61 % 88 % 6 % 1020,7 hPa 0,0 l/m 4,1 km/h (1 Bft) 0 min 7,7 km/h (2 Bft)
14.09.2009 09:48 20,1 C 13,7 C 0,0 UV-I 0,1 C 61 % 88 % 3 % 1020,7 hPa 0,0 l/m 3,6 km/h (1 Bft) 0 min 4,8 km/h (1 Bft)
14.09.2009 09:50 20,1 C 13,7 C 0,0 UV-I 0,1 C 61 % 88 % 3 % 1020,7 hPa 0,0 l/m 3,1 km/h (1 Bft) 0 min 3,1 km/h (1 Bft)
14.09.2009 09:52 20,1 C 13,9 C 0,0 UV-I 0,0 C 61 % 88 % 0 % 1020,7 hPa 0,0 l/m 2,9 km/h (1 Bft) 0 min 4,8 km/h (1 Bft)
14.09.2009 09:54 20,1 C 13,8 C 0,1 UV-I 0,1 C 61 % 88 % 3 % 1020,7 hPa 0,0 l/m 2,6 km/h (1 Bft) 0 min 9,6 km/h (2 Bft)
14.09.2009 09:56 20,1 C 13,8 C 0,1 UV-I 0,1 C 61 % 88 % 3 % 1020,8 hPa 0,0 l/m 2,9 km/h (1 Bft) 0 min 6,0 km/h (2 Bft)
14.09.2009 09:58 20,1 C 13,8 C 0,0 UV-I 0,0 C 61 % 88 % 0 % 1020,8 hPa 0,0 l/m 2,9 km/h (1 Bft) 0 min 6,5 km/h (2 Bft)
14.09.2009 10:00 20,1 C 13,9 C 0,0 UV-I 0,0 C 61 % 88 % 0 % 1020,8 hPa 0,0 l/m 3,4 km/h (1 Bft) 0 min 8,2 km/h (2 Bft)
14.09.2009 10:02 20,1 C 13,8 C 0,0 UV-I 0,0 C 61 % 88 % 0 % 1020,8 hPa 0,0 l/m 3,6 km/h (1 Bft) 0 min 11,3 km/h (2 Bft)
14.09.2009 10:04 20,1 C 13,9 C 0,0 UV-I 0,0 C 61 % 88 % 0 % 1020,8 hPa 0,0 l/m 4,3 km/h (1 Bft) 0 min 2,9 km/h (1 Bft)
14.09.2009 10:06 20,1 C 13,9 C 0,0 UV-I 0,0 C 61 % 88 % 0 % 1020,8 hPa 0,0 l/m 3,6 km/h (1 Bft) 0 min 3,4 km/h (1 Bft)
14.09.2009 10:08 20,1 C 13,9 C 0,0 UV-I 0,0 C 61 % 88 % 0 % 1020,8 hPa 0,0 l/m 4,1 km/h (1 Bft) 0 min 9,9 km/h (2 Bft)
14.09.2009 10:10 20,1 C 13,9 C 0,0 UV-I 0,0 C 61 % 88 % 0 % 1020,8 hPa 0,0 l/m 4,6 km/h (1 Bft) 0 min 8,4 km/h (2 Bft)
14.09.2009 10:12 20,1 C 13,9 C 0,0 UV-I 0,0 C 61 % 89 % 0 % 1020,8 hPa 0,0 l/m 3,8 km/h (1 Bft) 0 min 0,0 km/h (0 Bft)
14.09.2009 10:14 20,1 C 13,9 C 0,1 UV-I 0,0 C 61 % 89 % 0 % 1020,8 hPa 0,0 l/m 3,6 km/h (1 Bft) 0 min 5,3 km/h (1 Bft)
14.09.2009 10:18 20,1 C 13,8 C 0,5 UV-I 0,0 C 61 % 89 % 0 % 1020,8 hPa 0,0 l/m 4,1 km/h (1 Bft) 0 min 5,1 km/h (1 Bft)
14.09.2009 10:20 20,1 C 13,9 C 0,5 UV-I 0,0 C 61 % 89 % 0 % 1020,8 hPa 0,0 l/m 3,1 km/h (1 Bft) 0 min 2,6 km/h (1 Bft)
14.09.2009 10:24 20,2 C 13,8 C 0,5 UV-I 0,0 C 61 % 89 % 0 % 1020,8 hPa 0,1 l/m 3,1 km/h (1 Bft) 0 min 3,6 km/h (1 Bft)
14.09.2009 10:26 20,2 C 13,9 C 0,5 UV-I 0,0 C 61 % 89 % 0 % 1020,8 hPa 0,0 l/m 3,4 km/h (1 Bft) 0 min 3,6 km/h (1 Bft)
14.09.2009 10:28 20,2 C 13,8 C 0,5 UV-I 0,0 C 61 % 89 % 0 % 1020,8 hPa 0,0 l/m 3,1 km/h (1 Bft) 0 min 5,3 km/h (1 Bft)
14.09.2009 10:30 20,2 C 13,8 C 0,5 UV-I 0,0 C 61 % 89 % 0 % 1020,8 hPa 0,0 l/m 3,1 km/h (1 Bft) 0 min 3,8 km/h (1 Bft)
14.09.2009 10:32 20,2 C 13,8 C 0,5 UV-I 0,0 C 61 % 90 % 0 % 1020,8 hPa 0,0 l/m 3,6 km/h (1 Bft) 0 min 6,5 km/h (2 Bft)
14.09.2009 10:34 20,2 C 13,8 C 0,6 UV-I 0,0 C 61 % 89 % 0 % 1020,8 hPa 0,0 l/m 3,8 km/h (1 Bft) 0 min 7,0 km/h (2 Bft)
14.09.2009 10:36 20,2 C 13,9 C 0,6 UV-I 0,0 C 61 % 89 % 0 % 1020,9 hPa 0,0 l/m 4,1 km/h (1 Bft) 0 min 7,2 km/h (2 Bft)
14.09.2009 10:38 20,2 C 13,8 C 1,3 UV-I 0,0 C 61 % 89 % 0 % 1020,9 hPa 0,0 l/m 3,8 km/h (1 Bft) 0 min 0,0 km/h (0 Bft)
14.09.2009 10:40 20,2 C 13,8 C 1,3 UV-I 0,0 C 61 % 90 % 0 % 1020,9 hPa 0,0 l/m 3,4 km/h (1 Bft) 0 min 2,9 km/h (1 Bft)
14.09.2009 10:42 20,2 C 13,9 C 1,3 UV-I 0,0 C 61 % 90 % 0 % 1020,9 hPa 0,0 l/m 2,9 km/h (1 Bft) 0 min 0,0 km/h (0 Bft)
14.09.2009 10:44 20,2 C 14,0 C 1,2 UV-I 0,0 C 61 % 90 % 0 % 1020,9 hPa 0,0 l/m 1,7 km/h (1 Bft) 0 min 0,0 km/h (0 Bft)
14.09.2009 10:46 20,2 C 14,0 C 1,2 UV-I 0,1 C 61 % 90 % 3 % 1020,9 hPa 0,0 l/m 1,4 km/h (1 Bft) 0 min 8,2 km/h (2 Bft)
14.09.2009 10:48 20,2 C 14,0 C 1,9 UV-I 0,3 C 61 % 90 % 9 % 1020,9 hPa 0,0 l/m 1,0 km/h (0 Bft) 0 min 0,0 km/h (0 Bft)
14.09.2009 10:50 20,2 C 14,0 C 1,9 UV-I 0,5 C 61 % 90 % 14 % 1020,9 hPa 0,0 l/m 1,0 km/h (0 Bft) 0 min 2,4 km/h (1 Bft)
14.09.2009 10:52 20,2 C 14,1 C 1,9 UV-I 0,5 C 61 % 89 % 14 % 1020,9 hPa 0,0 l/m 1,7 km/h (1 Bft) 0 min 6,0 km/h (2 Bft)
14.09.2009 10:54 20,3 C 14,1 C 1,3 UV-I 0,5 C 61 % 89 % 14 % 1020,9 hPa 0,0 l/m 2,6 km/h (1 Bft) 0 min 6,7 km/h (2 Bft)
14.09.2009 10:56 20,3 C 14,1 C 1,3 UV-I 0,5 C 61 % 89 % 14 % 1020,8 hPa 0,0 l/m 2,9 km/h (1 Bft) 0 min 2,9 km/h (1 Bft)
14.09.2009 10:58 20,3 C 14,3 C 0,5 UV-I 0,2 C 61 % 89 % 6 % 1020,8 hPa 0,0 l/m 2,4 km/h (1 Bft) 0 min 2,9 km/h (1 Bft)
14.09.2009 11:00 20,3 C 14,3 C 0,5 UV-I 0,2 C 61 % 89 % 6 % 1020,8 hPa 0,0 l/m 2,4 km/h (1 Bft) 0 min 2,9 km/h (1 Bft)
14.09.2009 11:02 20,3 C 14,3 C 0,5 UV-I 0,2 C 61 % 89 % 6 % 1020,8 hPa 0,0 l/m 2,2 km/h (1 Bft) 0 min 2,9 km/h (1 Bft)
14.09.2009 11:04 20,3 C 14,3 C 0,3 UV-I 0,1 C 61 % 89 % 3 % 1020,8 hPa 0,0 l/m 1,9 km/h (1 Bft) 0 min 4,6 km/h (1 Bft)
14.09.2009 11:06 20,3 C 14,2 C 0,3 UV-I 0,1 C 61 % 89 % 3 % 1020,8 hPa 0,0 l/m 1,7 km/h (1 Bft) 0 min 5,8 km/h (2 Bft)
14.09.2009 11:08 20,3 C 14,3 C 0,2 UV-I 0,0 C 61 % 88 % 0 % 1020,8 hPa 0,0 l/m 1,9 km/h (1 Bft) 0 min 6,7 km/h (2 Bft)
14.09.2009 11:10 20,3 C 14,2 C 0,2 UV-I 0,0 C 61 % 88 % 0 % 1020,8 hPa 0,0 l/m 2,2 km/h (1 Bft) 0 min 0,0 km/h (0 Bft)
14.09.2009 11:12 20,2 C 14,2 C 0,2 UV-I 0,0 C 61 % 88 % 0 % 1020,8 hPa 0,0 l/m 2,2 km/h (1 Bft) 0 min 0,0 km/h (0 Bft)
14.09.2009 11:14 20,3 C 14,3 C 0,1 UV-I 0,0 C 61 % 88 % 0 % 1020,8 hPa 0,0 l/m 2,2 km/h (1 Bft) 0 min 0,0 km/h (0 Bft)
14.09.2009 11:16 20,2 C 14,3 C 0,1 UV-I 0,0 C 61 % 88 % 0 % 1020,6 hPa 0,0 l/m 1,7 km/h (1 Bft) 0 min 2,4 km/h (1 Bft)
14.09.2009 11:18 20,3 C 14,3 C 0,0 UV-I 0,0 C 61 % 88 % 0 % 1020,6 hPa 0,0 l/m 1,4 km/h (1 Bft) 0 min 2,4 km/h (1 Bft)
14.09.2009 11:20 20,2 C 14,3 C 0,0 UV-I 0,0 C 61 % 88 % 0 % 1020,6 hPa 0,0 l/m 1,2 km/h (1 Bft) 0 min 4,1 km/h (1 Bft)
14.09.2009 11:22 20,2 C 14,2 C 0,0 UV-I 0,0 C 61 % 88 % 0 % 1020,6 hPa 0,0 l/m 1,7 km/h (1 Bft) 0 min 4,3 km/h (1 Bft)
14.09.2009 11:24 20,2 C 14,3 C 0,0 UV-I 0,0 C 61 % 88 % 0 % 1020,6 hPa 0,0 l/m 1,9 km/h (1 Bft) 0 min 5,3 km/h (1 Bft)
14.09.2009 11:26 20,3 C 14,3 C 0,0 UV-I 0,0 C 61 % 88 % 0 % 1020,6 hPa 0,0 l/m 2,2 km/h (1 Bft) 0 min 5,1 km/h (1 Bft)
14.09.2009 11:28 20,2 C 14,2 C 0,0 UV-I 0,0 C 61 % 88 % 0 % 1020,6 hPa 0,1 l/m 2,2 km/h (1 Bft) 0 min 0,0 km/h (0 Bft)
14.09.2009 11:30 20,2 C 14,3 C 0,0 UV-I 0,0 C 61 % 88 % 0 % 1020,6 hPa 0,0 l/m 1,9 km/h (1 Bft) 0 min 2,4 km/h (1 Bft)
14.09.2009 11:32 20,2 C 14,2 C 0,0 UV-I 0,0 C 61 % 88 % 0 % 1020,6 hPa 0,0 l/m 1,7 km/h (1 Bft) 0 min 3,8 km/h (1 Bft)
14.09.2009 11:34 20,2 C 14,3 C 0,1 UV-I 0,0 C 61 % 88 % 0 % 1020,6 hPa 0,0 l/m 1,4 km/h (1 Bft) 0 min 2,9 km/h (1 Bft)
14.09.2009 11:36 20,2 C 14,2 C 0,1 UV-I 0,0 C 61 % 88 % 0 % 1020,8 hPa 0,0 l/m 1,2 km/h (1 Bft) 0 min 2,4 km/h (1 Bft)
14.09.2009 11:38 20,2 C 14,2 C 0,2 UV-I 0,0 C 61 % 88 % 0 % 1020,8 hPa 0,0 l/m 1,2 km/h (1 Bft) 0 min 3,1 km/h (1 Bft)
14.09.2009 11:40 20,2 C 14,3 C 0,2 UV-I 0,0 C 61 % 88 % 0 % 1020,8 hPa 0,0 l/m 1,4 km/h (1 Bft) 0 min 2,9 km/h (1 Bft)
14.09.2009 11:42 20,2 C 14,3 C 0,2 UV-I 0,0 C 61 % 89 % 0 % 1020,8 hPa 0,0 l/m 1,2 km/h (1 Bft) 0 min 0,0 km/h (0 Bft)
14.09.2009 11:44 20,2 C 14,3 C 0,4 UV-I 0,0 C 61 % 89 % 0 % 1020,8 hPa 0,0 l/m 1,0 km/h (0 Bft) 0 min 0,0 km/h (0 Bft)
14.09.2009 11:46 20,2 C 14,3 C 0,4 UV-I 0,0 C 61 % 89 % 0 % 1020,8 hPa 0,0 l/m 0,7 km/h (0 Bft) 0 min 0,0 km/h (0 Bft)
14.09.2009 11:48 20,4 C 14,3 C 0,3 UV-I 0,0 C 61 % 88 % 0 % 1020,8 hPa 0,0 l/m 1,2 km/h (1 Bft) 0 min 3,6 km/h (1 Bft)
14.09.2009 11:50 20,2 C 14,3 C 0,3 UV-I 0,0 C 61 % 88 % 0 % 1020,8 hPa 0,0 l/m 1,0 km/h (0 Bft) 0 min 3,6 km/h (1 Bft)
14.09.2009 11:52 20,4 C 14,3 C 0,3 UV-I 0,0 C 61 % 88 % 0 % 1020,8 hPa 0,0 l/m 1,7 km/h (1 Bft) 0 min 5,8 km/h (2 Bft)
14.09.2009 11:54 20,4 C 14,4 C 0,3 UV-I 0,0 C 61 % 88 % 0 % 1020,8 hPa 0,0 l/m 1,9 km/h (1 Bft) 0 min 2,6 km/h (1 Bft)
14.09.2009 11:56 20,4 C 14,5 C 0,3 UV-I 0,0 C 61 % 88 % 0 % 1020,3 hPa 0,0 l/m 1,9 km/h (1 Bft) 0 min 3,4 km/h (1 Bft)
14.09.2009 11:58 20,4 C 14,4 C 0,4 UV-I 0,0 C 61 % 88 % 0 % 1020,3 hPa 0,0 l/m 1,9 km/h (1 Bft) 0 min 4,8 km/h (1 Bft)
14.09.2009 12:00 20,4 C 14,4 C 0,4 UV-I 0,0 C 61 % 88 % 0 % 1020,3 hPa 0,0 l/m 1,9 km/h (1 Bft) 0 min 0,0 km/h (0 Bft)
14.09.2009 12:02 20,4 C 14,4 C 0,4 UV-I 0,1 C 61 % 88 % 3 % 1020,3 hPa 0,0 l/m 2,2 km/h (1 Bft) 0 min 3,1 km/h (1 Bft)
14.09.2009 12:04 20,4 C 14,4 C 0,4 UV-I 0,1 C 61 % 88 % 3 % 1020,3 hPa 0,0 l/m 2,2 km/h (1 Bft) 0 min 3,1 km/h (1 Bft)
14.09.2009 12:08 20,4 C 14,7 C 2,6 UV-I 0,3 C 61 % 88 % 9 % 1020,3 hPa 0,0 l/m 2,6 km/h (1 Bft) 0 min 3,6 km/h (1 Bft)
14.09.2009 12:10 20,4 C 14,7 C 2,6 UV-I 0,7 C 61 % 88 % 20 % 1020,3 hPa 0,0 l/m 2,9 km/h (1 Bft) 0 min 4,6 km/h (1 Bft)
14.09.2009 12:12 20,4 C 14,8 C 2,6 UV-I 1,1 C 61 % 88 % 31 % 1020,3 hPa 0,0 l/m 3,4 km/h (1 Bft) 0 min 9,4 km/h (2 Bft)
14.09.2009 12:14 20,4 C 14,8 C 2,9 UV-I 1,3 C 61 % 87 % 37 % 1020,3 hPa 0,0 l/m 3,6 km/h (1 Bft) 0 min 8,9 km/h (2 Bft)
14.09.2009 12:16 20,4 C 14,9 C 2,9 UV-I 1,4 C 61 % 87 % 40 % 1020,2 hPa 0,0 l/m 4,3 km/h (1 Bft) 0 min 6,7 km/h (2 Bft)
14.09.2009 12:18 20,4 C 15,1 C 2,9 UV-I 1,3 C 61 % 87 % 37 % 1020,2 hPa 0,0 l/m 4,8 km/h (1 Bft) 0 min 8,7 km/h (2 Bft)
14.09.2009 12:20 20,5 C 15,1 C 2,9 UV-I 1,6 C 61 % 87 % 46 % 1020,2 hPa 0,0 l/m 5,1 km/h (1 Bft) 0 min 9,6 km/h (2 Bft)
14.09.2009 12:22 20,5 C 15,2 C 2,9 UV-I 1,8 C 61 % 86 % 51 % 1020,2 hPa 0,0 l/m 5,3 km/h (1 Bft) 0 min 13,0 km/h (3 Bft)
14.09.2009 12:24 20,5 C 15,3 C 2,9 UV-I 1,8 C 61 % 87 % 51 % 1020,2 hPa 0,0 l/m 4,6 km/h (1 Bft) 0 min 3,4 km/h (1 Bft)
14.09.2009 12:26 20,5 C 15,3 C 2,9 UV-I 2,1 C 61 % 86 % 60 % 1020,2 hPa 0,0 l/m 4,1 km/h (1 Bft) 0 min 4,8 km/h (1 Bft)
14.09.2009 12:28 20,6 C 15,5 C 2,8 UV-I 1,9 C 61 % 84 % 54 % 1020,2 hPa 0,0 l/m 4,8 km/h (1 Bft) 0 min 15,9 km/h (3 Bft)
14.09.2009 12:30 20,6 C 15,5 C 2,8 UV-I 1,9 C 60 % 85 % 54 % 1020,2 hPa 0,0 l/m 4,8 km/h (1 Bft) 0 min 10,6 km/h (2 Bft)
14.09.2009 12:32 20,6 C 15,5 C 2,8 UV-I 2,0 C 60 % 85 % 57 % 1020,2 hPa 0,0 l/m 4,3 km/h (1 Bft) 0 min 15,9 km/h (3 Bft)
14.09.2009 12:34 20,6 C 15,6 C 3,0 UV-I 2,1 C 60 % 84 % 60 % 1020,2 hPa 0,0 l/m 5,1 km/h (1 Bft) 0 min 10,8 km/h (2 Bft)
14.09.2009 12:36 20,6 C 15,7 C 3,0 UV-I 2,0 C 60 % 84 % 57 % 1020,3 hPa 0,0 l/m 5,1 km/h (1 Bft) 0 min 0,0 km/h (0 Bft)
14.09.2009 12:39 20,6 C 15,6 C 2,0 UV-I 2,0 C 60 % 84 % 57 % 1020,3 hPa 0,0 l/m 4,3 km/h (1 Bft) 0 min 9,6 km/h (2 Bft)
14.09.2009 12:40 20,6 C 15,6 C 2,0 UV-I 2,0 C 60 % 84 % 57 % 1020,3 hPa 0,0 l/m 4,3 km/h (1 Bft) 0 min 9,6 km/h (2 Bft)
14.09.2009 12:42 20,6 C 15,7 C 2,0 UV-I 1,7 C 60 % 83 % 49 % 1020,3 hPa 0,0 l/m 4,8 km/h (1 Bft) 0 min 13,7 km/h (3 Bft)
14.09.2009 12:44 20,7 C 15,7 C 2,3 UV-I 1,7 C 60 % 83 % 49 % 1020,3 hPa 0,0 l/m 5,1 km/h (1 Bft) 0 min 4,6 km/h (1 Bft)
14.09.2009 12:46 20,7 C 15,9 C 2,3 UV-I 1,5 C 60 % 83 % 43 % 1020,3 hPa 0,0 l/m 4,6 km/h (1 Bft) 0 min 5,1 km/h (1 Bft)
14.09.2009 12:48 20,7 C 15,9 C 2,5 UV-I 1,5 C 60 % 83 % 43 % 1020,3 hPa 0,0 l/m 4,1 km/h (1 Bft) 0 min 4,3 km/h (1 Bft)
14.09.2009 12:50 20,7 C 15,8 C 2,5 UV-I 1,7 C 60 % 83 % 49 % 1020,3 hPa 0,0 l/m 4,8 km/h (1 Bft) 0 min 13,2 km/h (3 Bft)
14.09.2009 12:52 20,7 C 15,8 C 2,5 UV-I 1,6 C 60 % 82 % 46 % 1020,3 hPa 0,0 l/m 4,3 km/h (1 Bft) 0 min 7,2 km/h (2 Bft)
14.09.2009 12:54 20,7 C 15,9 C 2,9 UV-I 1,6 C 60 % 82 % 46 % 1020,3 hPa 0,0 l/m 3,8 km/h (1 Bft) 0 min 7,7 km/h (2 Bft)
14.09.2009 12:56 20,7 C 15,9 C 2,9 UV-I 1,7 C 60 % 81 % 49 % 1020,1 hPa 0,0 l/m 4,3 km/h (1 Bft) 0 min 6,5 km/h (2 Bft)
14.09.2009 12:58 20,7 C 16,0 C 5,0 UV-I 2,0 C 60 % 81 % 57 % 1020,1 hPa 0,0 l/m 4,6 km/h (1 Bft) 0 min 4,6 km/h (1 Bft)
14.09.2009 13:00 20,7 C 16,0 C 5,0 UV-I 2,5 C 60 % 81 % 71 % 1020,1 hPa 0,0 l/m 4,8 km/h (1 Bft) 0 min 7,2 km/h (2 Bft)
14.09.2009 13:02 20,8 C 16,1 C 5,0 UV-I 2,7 C 60 % 80 % 77 % 1020,1 hPa 0,0 l/m 5,3 km/h (1 Bft) 0 min 7,9 km/h (2 Bft)
14.09.2009 13:04 20,8 C 16,2 C 5,4 UV-I 2,8 C 60 % 80 % 80 % 1020,1 hPa 0,0 l/m 6,0 km/h (2 Bft) 0 min 11,5 km/h (2 Bft)
14.09.2009 13:06 20,8 C 16,3 C 5,4 UV-I 2,5 C 60 % 80 % 71 % 1020,1 hPa 0,0 l/m 6,7 km/h (2 Bft) 0 min 7,2 km/h (2 Bft)
14.09.2009 13:08 20,8 C 16,3 C 1,6 UV-I 2,2 C 60 % 79 % 63 % 1020,1 hPa 0,0 l/m 7,2 km/h (2 Bft) 0 min 4,6 km/h (1 Bft)
14.09.2009 13:10 20,8 C 16,2 C 1,6 UV-I 1,8 C 60 % 79 % 51 % 1020,1 hPa 0,0 l/m 7,7 km/h (2 Bft) 0 min 9,6 km/h (2 Bft)
14.09.2009 13:12 20,8 C 16,2 C 1,6 UV-I 1,4 C 60 % 79 % 40 % 1020,1 hPa 0,0 l/m 7,7 km/h (2 Bft) 0 min 18,8 km/h (3 Bft)
14.09.2009 13:14 20,8 C 16,1 C 1,4 UV-I 1,2 C 59 % 79 % 34 % 1020,1 hPa 0,0 l/m 7,9 km/h (2 Bft) 0 min 8,2 km/h (2 Bft)
14.09.2009 13:16 20,8 C 16,0 C 1,4 UV-I 1,0 C 59 % 80 % 29 % 1019,8 hPa 0,0 l/m 7,0 km/h (2 Bft) 0 min 6,5 km/h (2 Bft)
14.09.2009 13:18 20,8 C 16,0 C 1,4 UV-I 0,8 C 59 % 79 % 23 % 1019,8 hPa 0,0 l/m 6,7 km/h (2 Bft) 0 min 5,8 km/h (2 Bft)
14.09.2009 13:20 20,8 C 16,0 C 1,4 UV-I 0,7 C 59 % 80 % 20 % 1019,8 hPa 0,0 l/m 6,3 km/h (2 Bft) 0 min 11,3 km/h (2 Bft)
14.09.2009 13:22 20,8 C 16,0 C 1,4 UV-I 0,7 C 59 % 80 % 20 % 1019,8 hPa 0,0 l/m 6,3 km/h (2 Bft) 0 min 3,1 km/h (1 Bft)
14.09.2009 13:24 20,8 C 16,0 C 1,9 UV-I 0,5 C 59 % 79 % 14 % 1019,8 hPa 0,0 l/m 6,7 km/h (2 Bft) 0 min 9,6 km/h (2 Bft)
14.09.2009 13:26 20,8 C 16,0 C 1,9 UV-I 0,6 C 59 % 80 % 17 % 1019,8 hPa 0,0 l/m 6,5 km/h (2 Bft) 0 min 8,2 km/h (2 Bft)
14.09.2009 13:28 20,8 C 16,0 C 4,9 UV-I 0,9 C 59 % 80 % 26 % 1019,8 hPa 0,0 l/m 6,7 km/h (2 Bft) 0 min 3,6 km/h (1 Bft)
14.09.2009 13:30 20,9 C 16,1 C 4,9 UV-I 1,2 C 59 % 81 % 34 % 1019,8 hPa 0,0 l/m 6,7 km/h (2 Bft) 0 min 7,2 km/h (2 Bft)
14.09.2009 13:32 20,9 C 16,2 C 4,9 UV-I 2,1 C 59 % 81 % 60 % 1019,8 hPa 0,0 l/m 6,7 km/h (2 Bft) 0 min 11,3 km/h (2 Bft)
14.09.2009 13:34 20,9 C 16,3 C 5,1 UV-I 2,3 C 59 % 80 % 66 % 1019,8 hPa 0,0 l/m 7,0 km/h (2 Bft) 0 min 10,3 km/h (2 Bft)
14.09.2009 13:36 21,0 C 16,4 C 5,1 UV-I 2,0 C 59 % 79 % 57 % 1019,9 hPa 0,0 l/m 7,0 km/h (2 Bft) 0 min 8,9 km/h (2 Bft)
14.09.2009 13:38 21,0 C 16,4 C 2,5 UV-I 1,8 C 59 % 79 % 51 % 1019,9 hPa 0,0 l/m 6,7 km/h (2 Bft) 0 min 6,7 km/h (2 Bft)
14.09.2009 13:40 21,0 C 16,5 C 2,5 UV-I 1,6 C 59 % 80 % 46 % 1019,9 hPa 0,0 l/m 7,0 km/h (2 Bft) 0 min 8,9 km/h (2 Bft)
14.09.2009 13:42 21,0 C 16,5 C 2,5 UV-I 1,5 C 59 % 80 % 43 % 1019,9 hPa 0,0 l/m 7,2 km/h (2 Bft) 0 min 19,7 km/h (3 Bft)
14.09.2009 13:44 21,0 C 16,4 C 1,8 UV-I 1,4 C 59 % 79 % 40 % 1019,9 hPa 0,0 l/m 7,0 km/h (2 Bft) 0 min 11,1 km/h (2 Bft)
14.09.2009 13:46 21,0 C 16,4 C 1,8 UV-I 1,2 C 59 % 78 % 34 % 1019,9 hPa 0,0 l/m 7,0 km/h (2 Bft) 0 min 7,9 km/h (2 Bft)
14.09.2009 13:48 21,0 C 16,3 C 1,4 UV-I 1,2 C 59 % 79 % 34 % 1019,9 hPa 0,0 l/m 6,7 km/h (2 Bft) 0 min 10,1 km/h (2 Bft)
14.09.2009 13:50 21,0 C 16,4 C 1,4 UV-I 0,9 C 59 % 79 % 26 % 1019,9 hPa 0,0 l/m 7,2 km/h (2 Bft) 0 min 11,3 km/h (2 Bft)
14.09.2009 13:52 21,0 C 16,4 C 1,4 UV-I 0,8 C 59 % 79 % 23 % 1019,9 hPa 0,0 l/m 7,2 km/h (2 Bft) 0 min 8,9 km/h (2 Bft)
14.09.2009 13:54 21,0 C 16,5 C 2,5 UV-I 0,8 C 59 % 79 % 23 % 1019,9 hPa 0,0 l/m 6,7 km/h (2 Bft) 0 min 7,2 km/h (2 Bft)
14.09.2009 13:56 21,0 C 16,4 C 2,5 UV-I 1,3 C 59 % 79 % 37 % 1019,7 hPa 0,0 l/m 6,5 km/h (2 Bft) 0 min 7,5 km/h (2 Bft)
14.09.2009 13:58 21,0 C 16,5 C 2,4 UV-I 1,3 C 59 % 78 % 37 % 1019,7 hPa 0,0 l/m 6,3 km/h (2 Bft) 0 min 9,9 km/h (2 Bft)
14.09.2009 14:00 21,0 C 16,5 C 2,4 UV-I 1,3 C 59 % 77 % 37 % 1019,7 hPa 0,0 l/m 5,5 km/h (1 Bft) 0 min 9,6 km/h (2 Bft)
14.09.2009 14:02 21,0 C 16,5 C 2,4 UV-I 1,1 C 59 % 77 % 31 % 1019,7 hPa 0,0 l/m 6,0 km/h (2 Bft) 0 min 9,9 km/h (2 Bft)
14.09.2009 14:04 21,0 C 16,4 C 0,7 UV-I 0,9 C 59 % 77 % 26 % 1019,7 hPa 0,0 l/m 6,5 km/h (2 Bft) 0 min 8,7 km/h (2 Bft)
14.09.2009 14:06 21,1 C 16,4 C 0,7 UV-I 0,7 C 58 % 77 % 20 % 1019,7 hPa 0,0 l/m 5,8 km/h (2 Bft) 0 min 5,8 km/h (2 Bft)
14.09.2009 14:08 21,0 C 16,4 C 0,5 UV-I 0,3 C 58 % 77 % 9 % 1019,7 hPa 0,0 l/m 5,5 km/h (1 Bft) 0 min 4,3 km/h (1 Bft)
14.09.2009 14:10 21,0 C 16,3 C 0,5 UV-I 0,2 C 58 % 78 % 6 % 1019,7 hPa 0,0 l/m 4,8 km/h (1 Bft) 0 min 3,6 km/h (1 Bft)
14.09.2009 14:12 21,0 C 16,2 C 0,5 UV-I 0,1 C 58 % 78 % 3 % 1019,7 hPa 0,0 l/m 4,6 km/h (1 Bft) 0 min 5,1 km/h (1 Bft)
14.09.2009 14:14 21,0 C 16,2 C 1,1 UV-I 0,0 C 58 % 78 % 0 % 1019,7 hPa 0,0 l/m 4,1 km/h (1 Bft) 0 min 5,8 km/h (2 Bft)
14.09.2009 14:16 21,0 C 16,2 C 1,1 UV-I 0,0 C 58 % 78 % 0 % 1019,6 hPa 0,0 l/m 4,1 km/h (1 Bft) 0 min 4,8 km/h (1 Bft)
14.09.2009 14:18 21,0 C 16,3 C 2,0 UV-I 0,1 C 58 % 79 % 3 % 1019,6 hPa 0,0 l/m 3,6 km/h (1 Bft) 0 min 5,3 km/h (1 Bft)
14.09.2009 14:20 21,0 C 16,3 C 2,0 UV-I 0,2 C 58 % 79 % 6 % 1019,6 hPa 0,0 l/m 3,6 km/h (1 Bft) 0 min 4,6 km/h (1 Bft)
14.09.2009 14:22 21,0 C 16,3 C 2,0 UV-I 0,5 C 58 % 79 % 14 % 1019,6 hPa 0,0 l/m 3,6 km/h (1 Bft) 0 min 3,1 km/h (1 Bft)
14.09.2009 14:24 21,1 C 16,3 C 2,9 UV-I 0,8 C 58 % 79 % 23 % 1019,6 hPa 0,0 l/m 3,1 km/h (1 Bft) 0 min 3,1 km/h (1 Bft)
14.09.2009 14:26 21,1 C 16,4 C 2,9 UV-I 1,0 C 58 % 79 % 29 % 1019,6 hPa 0,0 l/m 2,2 km/h (1 Bft) 0 min 0,0 km/h (0 Bft)
14.09.2009 14:28 21,1 C 16,4 C 4,3 UV-I 1,4 C 58 % 79 % 40 % 1019,6 hPa 0,0 l/m 2,2 km/h (1 Bft) 0 min 0,0 km/h (0 Bft)
14.09.2009 14:30 21,2 C 16,6 C 4,3 UV-I 1,7 C 59 % 79 % 49 % 1019,6 hPa 0,0 l/m 1,9 km/h (1 Bft) 0 min 0,0 km/h (0 Bft)
14.09.2009 14:32 21,2 C 16,6 C 4,3 UV-I 2,3 C 59 % 79 % 66 % 1019,6 hPa 0,0 l/m 1,9 km/h (1 Bft) 0 min 4,8 km/h (1 Bft)
14.09.2009 14:34 21,2 C 16,7 C 6,4 UV-I 2,9 C 59 % 79 % 83 % 1019,6 hPa 0,0 l/m 2,2 km/h (1 Bft) 2 min 0,0 km/h (0 Bft)
14.09.2009 14:36 21,3 C 16,8 C 6,4 UV-I 3,1 C 59 % 79 % 89 % 1020,6 hPa 0,0 l/m 2,4 km/h (1 Bft) 2 min 2,4 km/h (1 Bft)
14.09.2009 14:38 21,2 C 17,0 C 6,5 UV-I 3,7 C 59 % 79 % 100 % 1020,6 hPa 0,0 l/m 2,6 km/h (1 Bft) 2 min 3,6 km/h (1 Bft)
14.09.2009 14:40 21,4 C 17,1 C 6,5 UV-I 4,3 C 59 % 79 % 100 % 1020,6 hPa 0,0 l/m 3,1 km/h (1 Bft) 2 min 2,9 km/h (1 Bft)
14.09.2009 14:42 21,4 C 17,3 C 6,5 UV-I 4,7 C 58 % 78 % 100 % 1020,6 hPa 0,0 l/m 3,8 km/h (1 Bft) 2 min 12,0 km/h (2 Bft)
14.09.2009 14:44 21,5 C 17,3 C 6,7 UV-I 4,7 C 58 % 78 % 100 % 1020,6 hPa 0,0 l/m 3,8 km/h (1 Bft) 2 min 0,0 km/h (0 Bft)
14.09.2009 14:46 21,6 C 17,3 C 6,7 UV-I 4,3 C 58 % 78 % 100 % 1020,6 hPa 0,0 l/m 4,3 km/h (1 Bft) 2 min 3,8 km/h (1 Bft)
14.09.2009 14:48 21,6 C 17,4 C 2,7 UV-I 3,9 C 58 % 78 % 100 % 1020,6 hPa 0,0 l/m 4,6 km/h (1 Bft) 2 min 7,0 km/h (2 Bft)
14.09.2009 14:50 21,6 C 17,3 C 2,7 UV-I 3,6 C 58 % 76 % 100 % 1020,6 hPa 0,0 l/m 4,8 km/h (1 Bft) 2 min 6,7 km/h (2 Bft)
14.09.2009 14:52 21,6 C 17,3 C 2,7 UV-I 3,1 C 58 % 77 % 89 % 1020,6 hPa 0,0 l/m 5,1 km/h (1 Bft) 2 min 6,5 km/h (2 Bft)
14.09.2009 14:54 21,6 C 17,3 C 1,4 UV-I 2,7 C 58 % 76 % 77 % 1020,6 hPa 0,0 l/m 4,8 km/h (1 Bft) 0 min 6,3 km/h (2 Bft)
14.09.2009 14:56 21,6 C 17,2 C 1,4 UV-I 2,1 C 57 % 76 % 60 % 1020,6 hPa 0,0 l/m 5,3 km/h (1 Bft) 0 min 7,2 km/h (2 Bft)
14.09.2009 14:58 21,6 C 17,0 C 0,1 UV-I 1,5 C 57 % 78 % 43 % 1020,6 hPa 0,1 l/m 6,0 km/h (2 Bft) 0 min 9,4 km/h (2 Bft)
14.09.2009 15:00 21,6 C 16,8 C 0,1 UV-I 0,7 C 57 % 79 % 20 % 1020,6 hPa 0,0 l/m 5,8 km/h (2 Bft) 0 min 3,8 km/h (1 Bft)
14.09.2009 15:02 21,6 C 16,6 C 0,1 UV-I 0,0 C 57 % 80 % 0 % 1020,6 hPa 0,2 l/m 5,3 km/h (1 Bft) 0 min 5,5 km/h (1 Bft)
14.09.2009 15:04 21,6 C 16,4 C 0,0 UV-I 0,0 C 57 % 79 % 0 % 1020,6 hPa 0,0 l/m 5,5 km/h (1 Bft) 0 min 7,9 km/h (2 Bft)
14.09.2009 15:06 21,6 C 16,3 C 0,0 UV-I 0,0 C 57 % 79 % 0 % 1020,6 hPa 0,0 l/m 5,1 km/h (1 Bft) 0 min 5,1 km/h (1 Bft)
14.09.2009 15:08 21,6 C 16,0 C 0,3 UV-I 0,0 C 57 % 80 % 0 % 1020,6 hPa 0,0 l/m 4,6 km/h (1 Bft) 0 min 6,3 km/h (2 Bft)
14.09.2009 15:10 21,6 C 15,9 C 0,3 UV-I 0,0 C 57 % 81 % 0 % 1020,6 hPa 0,0 l/m 4,6 km/h (1 Bft) 0 min 4,1 km/h (1 Bft)
14.09.2009 15:12 21,6 C 15,8 C 0,3 UV-I 0,0 C 57 % 81 % 0 % 1020,6 hPa 0,1 l/m 4,8 km/h (1 Bft) 0 min 8,4 km/h (2 Bft)
14.09.2009 15:14 21,6 C 15,7 C 0,5 UV-I 0,0 C 57 % 82 % 0 % 1020,6 hPa 0,0 l/m 5,1 km/h (1 Bft) 0 min 8,2 km/h (2 Bft)
14.09.2009 15:16 21,6 C 15,7 C 0,5 UV-I 0,0 C 57 % 82 % 0 % 1019,5 hPa 0,0 l/m 4,8 km/h (1 Bft) 0 min 5,1 km/h (1 Bft)
14.09.2009 15:18 21,6 C 15,5 C 0,8 UV-I 0,0 C 57 % 83 % 0 % 1019,5 hPa 0,0 l/m 4,8 km/h (1 Bft) 0 min 5,8 km/h (2 Bft)
14.09.2009 15:20 21,6 C 15,4 C 0,8 UV-I 0,0 C 57 % 83 % 0 % 1019,5 hPa 0,1 l/m 4,8 km/h (1 Bft) 0 min 7,5 km/h (2 Bft)
14.09.2009 15:22 21,6 C 15,5 C 0,8 UV-I 0,0 C 57 % 83 % 0 % 1019,5 hPa 0,0 l/m 4,6 km/h (1 Bft) 0 min 2,4 km/h (1 Bft)
14.09.2009 15:24 21,6 C 15,4 C 0,9 UV-I 0,0 C 57 % 84 % 0 % 1019,5 hPa 0,0 l/m 4,6 km/h (1 Bft) 0 min 16,4 km/h (3 Bft)
14.09.2009 15:26 21,6 C 15,3 C 0,9 UV-I 0,0 C 57 % 84 % 0 % 1019,5 hPa 0,0 l/m 4,1 km/h (1 Bft) 0 min 6,0 km/h (2 Bft)
14.09.2009 15:28 21,6 C 15,2 C 1,0 UV-I 0,0 C 57 % 84 % 0 % 1019,5 hPa 0,0 l/m 3,6 km/h (1 Bft) 0 min 5,8 km/h (2 Bft)
14.09.2009 15:30 21,6 C 15,2 C 1,0 UV-I 0,0 C 57 % 84 % 0 % 1019,5 hPa 0,0 l/m 2,6 km/h (1 Bft) 0 min 0,0 km/h (0 Bft)
14.09.2009 15:32 21,6 C 15,2 C 1,0 UV-I 0,0 C 57 % 84 % 0 % 1019,5 hPa 0,0 l/m 2,2 km/h (1 Bft) 0 min 0,0 km/h (0 Bft)
14.09.2009 15:34 21,5 C 15,3 C 0,6 UV-I 0,0 C 57 % 85 % 0 % 1019,5 hPa 0,0 l/m 1,7 km/h (1 Bft) 0 min 0,0 km/h (0 Bft)
14.09.2009 15:36 21,5 C 15,2 C 0,6 UV-I 0,0 C 58 % 85 % 0 % 1019,3 hPa 0,0 l/m 0,7 km/h (0 Bft) 0 min 0,0 km/h (0 Bft)
14.09.2009 15:38 21,5 C 15,3 C 0,7 UV-I 0,0 C 58 % 85 % 0 % 1019,3 hPa 0,0 l/m 0,2 km/h (0 Bft) 0 min 0,0 km/h (0 Bft)
14.09.2009 15:40 21,5 C 15,3 C 0,7 UV-I 0,0 C 58 % 86 % 0 % 1019,3 hPa 0,0 l/m 0,0 km/h (0 Bft) 0 min 0,0 km/h (0 Bft)
14.09.2009 15:42 21,4 C 15,3 C 0,7 UV-I 0,0 C 58 % 86 % 0 % 1019,3 hPa 0,0 l/m 0,2 km/h (0 Bft) 0 min 3,8 km/h (1 Bft)
14.09.2009 15:44 21,5 C 15,3 C 1,1 UV-I 0,0 C 58 % 86 % 0 % 1019,3 hPa 0,0 l/m 0,5 km/h (0 Bft) 0 min 2,6 km/h (1 Bft)
14.09.2009 15:46 21,4 C 15,2 C 1,1 UV-I 0,0 C 58 % 86 % 0 % 1019,3 hPa 0,0 l/m 1,2 km/h (1 Bft) 0 min 3,6 km/h (1 Bft)
14.09.2009 15:48 21,4 C 15,3 C 0,6 UV-I 0,0 C 58 % 86 % 0 % 1019,3 hPa 0,0 l/m 1,7 km/h (1 Bft) 0 min 5,5 km/h (1 Bft)
14.09.2009 15:50 21,4 C 15,3 C 0,6 UV-I 0,0 C 58 % 86 % 0 % 1019,3 hPa 0,0 l/m 2,2 km/h (1 Bft) 0 min 3,4 km/h (1 Bft)
14.09.2009 15:52 21,4 C 15,2 C 0,6 UV-I 0,0 C 58 % 86 % 0 % 1019,3 hPa 0,0 l/m 2,2 km/h (1 Bft) 0 min 0,0 km/h (0 Bft)
14.09.2009 15:54 21,4 C 15,2 C 1,1 UV-I 0,0 C 58 % 86 % 0 % 1019,3 hPa 0,0 l/m 2,4 km/h (1 Bft) 0 min 4,3 km/h (1 Bft)
14.09.2009 15:56 21,4 C 15,3 C 1,1 UV-I 0,0 C 58 % 86 % 0 % 1018,9 hPa 0,0 l/m 2,6 km/h (1 Bft) 0 min 4,1 km/h (1 Bft)
14.09.2009 15:58 21,4 C 15,2 C 1,6 UV-I 0,0 C 58 % 87 % 0 % 1018,9 hPa 0,0 l/m 2,6 km/h (1 Bft) 0 min 7,5 km/h (2 Bft)
14.09.2009 16:00 21,4 C 15,2 C 1,6 UV-I 0,0 C 58 % 87 % 0 % 1018,9 hPa 0,0 l/m 2,9 km/h (1 Bft) 0 min 6,5 km/h (2 Bft)
14.09.2009 16:02 21,4 C 15,3 C 1,6 UV-I 0,0 C 58 % 87 % 0 % 1018,9 hPa 0,0 l/m 3,1 km/h (1 Bft) 0 min 7,2 km/h (2 Bft)
14.09.2009 16:04 21,4 C 15,3 C 0,4 UV-I 0,0 C 58 % 86 % 0 % 1018,9 hPa 0,0 l/m 3,6 km/h (1 Bft) 0 min 10,8 km/h (2 Bft)
14.09.2009 16:06 21,4 C 15,2 C 0,4 UV-I 0,0 C 58 % 84 % 0 % 1018,9 hPa 0,0 l/m 4,6 km/h (1 Bft) 0 min 10,8 km/h (2 Bft)
14.09.2009 16:08 21,4 C 15,3 C 0,5 UV-I 0,0 C 58 % 82 % 0 % 1018,9 hPa 0,0 l/m 5,8 km/h (2 Bft) 0 min 11,5 km/h (2 Bft)
14.09.2009 16:10 21,2 C 15,3 C 0,5 UV-I 0,0 C 58 % 82 % 0 % 1018,9 hPa 0,0 l/m 6,3 km/h (2 Bft) 0 min 10,1 km/h (2 Bft)
14.09.2009 16:12 21,2 C 15,2 C 0,5 UV-I 0,0 C 58 % 83 % 0 % 1018,9 hPa 0,1 l/m 6,3 km/h (2 Bft) 0 min 3,8 km/h (1 Bft)
14.09.2009 16:14 21,2 C 15,1 C 0,9 UV-I 0,0 C 58 % 84 % 0 % 1018,9 hPa 0,0 l/m 6,5 km/h (2 Bft) 0 min 4,1 km/h (1 Bft)
14.09.2009 16:16 21,3 C 15,1 C 0,9 UV-I 0,0 C 58 % 84 % 0 % 1018,9 hPa 0,1 l/m 5,5 km/h (1 Bft) 0 min 2,4 km/h (1 Bft)
14.09.2009 16:18 21,2 C 15,1 C 1,3 UV-I 0,0 C 58 % 85 % 0 % 1018,9 hPa 0,0 l/m 4,1 km/h (1 Bft) 0 min 4,1 km/h (1 Bft)
14.09.2009 16:20 21,3 C 15,0 C 1,3 UV-I 0,0 C 58 % 85 % 0 % 1018,9 hPa 0,0 l/m 2,4 km/h (1 Bft) 0 min 3,4 km/h (1 Bft)
14.09.2009 16:22 21,3 C 15,0 C 1,3 UV-I 0,0 C 58 % 85 % 0 % 1018,9 hPa 0,1 l/m 2,2 km/h (1 Bft) 0 min 0,0 km/h (0 Bft)
14.09.2009 16:24 21,2 C 15,1 C 1,3 UV-I 0,0 C 58 % 86 % 0 % 1018,9 hPa 0,0 l/m 1,2 km/h (1 Bft) 0 min 0,0 km/h (0 Bft)
14.09.2009 16:26 21,3 C 14,9 C 1,3 UV-I 0,0 C 59 % 85 % 0 % 1018,9 hPa 0,0 l/m 1,0 km/h (0 Bft) 0 min 3,1 km/h (1 Bft)
14.09.2009 16:28 21,3 C 15,0 C 1,4 UV-I 0,0 C 59 % 86 % 0 % 1018,9 hPa 0,0 l/m 1,0 km/h (0 Bft) 0 min 2,6 km/h (1 Bft)
14.09.2009 16:30 21,3 C 15,0 C 1,4 UV-I 0,0 C 59 % 86 % 0 % 1018,9 hPa 0,0 l/m 0,5 km/h (0 Bft) 0 min 0,0 km/h (0 Bft)
14.09.2009 16:32 21,3 C 15,1 C 1,4 UV-I 0,0 C 58 % 86 % 0 % 1018,9 hPa 0,0 l/m 0,2 km/h (0 Bft) 0 min 0,0 km/h (0 Bft)
14.09.2009 16:34 21,3 C 15,0 C 1,6 UV-I 0,0 C 59 % 86 % 0 % 1018,9 hPa 0,0 l/m 0,2 km/h (0 Bft) 0 min 0,0 km/h (0 Bft)
14.09.2009 16:36 21,3 C 15,1 C 1,6 UV-I 0,0 C 59 % 86 % 0 % 1018,8 hPa 0,0 l/m 0,5 km/h (0 Bft) 0 min 3,4 km/h (1 Bft)
14.09.2009 16:38 21,2 C 15,1 C 2,0 UV-I 0,2 C 59 % 86 % 6 % 1018,8 hPa 0,0 l/m 0,5 km/h (0 Bft) 0 min 3,6 km/h (1 Bft)
14.09.2009 16:40 21,2 C 15,1 C 2,0 UV-I 0,6 C 59 % 86 % 17 % 1018,8 hPa 0,0 l/m 0,7 km/h (0 Bft) 0 min 2,6 km/h (1 Bft)
14.09.2009 16:42 21,4 C 15,2 C 2,0 UV-I 0,7 C 59 % 86 % 20 % 1018,8 hPa 0,0 l/m 1,2 km/h (1 Bft) 0 min 2,6 km/h (1 Bft)
14.09.2009 16:44 21,4 C 15,3 C 1,6 UV-I 0,6 C 59 % 86 % 17 % 1018,8 hPa 0,0 l/m 1,0 km/h (0 Bft) 0 min 0,0 km/h (0 Bft)
14.09.2009 16:46 21,4 C 15,2 C 1,6 UV-I 0,7 C 59 % 86 % 20 % 1018,8 hPa 0,0 l/m 1,0 km/h (0 Bft) 0 min 0,0 km/h (0 Bft)
14.09.2009 16:48 21,4 C 15,3 C 1,9 UV-I 0,8 C 59 % 86 % 23 % 1018,8 hPa 0,0 l/m 0,7 km/h (0 Bft) 0 min 0,0 km/h (0 Bft)
14.09.2009 16:50 21,4 C 15,3 C 1,9 UV-I 1,2 C 59 % 87 % 34 % 1018,8 hPa 0,0 l/m 0,5 km/h (0 Bft) 0 min 0,0 km/h (0 Bft)
14.09.2009 16:52 21,4 C 15,5 C 1,9 UV-I 1,5 C 59 % 87 % 43 % 1018,8 hPa 0,0 l/m 0,2 km/h (0 Bft) 0 min 0,0 km/h (0 Bft)
14.09.2009 16:54 21,5 C 15,5 C 1,7 UV-I 1,8 C 59 % 87 % 51 % 1018,8 hPa 0,0 l/m 0,0 km/h (0 Bft) 0 min 3,1 km/h (1 Bft)
14.09.2009 16:56 21,5 C 15,6 C 1,7 UV-I 1,9 C 58 % 86 % 54 % 1019,2 hPa 0,0 l/m 0,5 km/h (0 Bft) 0 min 4,3 km/h (1 Bft)
14.09.2009 16:58 21,5 C 15,6 C 1,5 UV-I 1,9 C 58 % 86 % 54 % 1019,2 hPa 0,0 l/m 1,0 km/h (0 Bft) 0 min 4,8 km/h (1 Bft)
14.09.2009 17:00 21,6 C 15,6 C 1,5 UV-I 1,8 C 58 % 86 % 51 % 1019,2 hPa 0,0 l/m 1,2 km/h (1 Bft) 0 min 0,0 km/h (0 Bft)
14.09.2009 17:02 21,5 C 15,7 C 1,5 UV-I 1,7 C 58 % 86 % 49 % 1019,2 hPa 0,0 l/m 1,7 km/h (1 Bft) 0 min 6,3 km/h (2 Bft)
14.09.2009 17:04 21,5 C 15,8 C 1,0 UV-I 1,5 C 58 % 86 % 43 % 1019,2 hPa 0,0 l/m 1,9 km/h (1 Bft) 0 min 0,0 km/h (0 Bft)
14.09.2009 17:06 21,6 C 15,9 C 1,0 UV-I 1,3 C 58 % 85 % 37 % 1019,2 hPa 0,0 l/m 2,2 km/h (1 Bft) 0 min 4,3 km/h (1 Bft)
14.09.2009 17:08 21,5 C 15,9 C 0,7 UV-I 1,2 C 58 % 85 % 34 % 1019,2 hPa 0,0 l/m 1,9 km/h (1 Bft) 0 min 2,6 km/h (1 Bft)
14.09.2009 17:10 21,5 C 15,8 C 0,7 UV-I 1,2 C 58 % 85 % 34 % 1019,2 hPa 0,0 l/m 1,2 km/h (1 Bft) 0 min 0,0 km/h (0 Bft)
14.09.2009 17:12 21,6 C 15,9 C 0,7 UV-I 1,0 C 58 % 85 % 29 % 1019,2 hPa 0,0 l/m 1,7 km/h (1 Bft) 0 min 4,6 km/h (1 Bft)
14.09.2009 17:14 21,5 C 15,9 C 0,1 UV-I 0,8 C 58 % 84 % 23 % 1019,2 hPa 0,0 l/m 2,2 km/h (1 Bft) 0 min 4,8 km/h (1 Bft)
14.09.2009 17:16 21,5 C 15,9 C 0,1 UV-I 0,7 C 58 % 83 % 20 % 1018,8 hPa 0,0 l/m 2,6 km/h (1 Bft) 0 min 3,6 km/h (1 Bft)
14.09.2009 17:18 21,5 C 15,9 C 0,0 UV-I 0,5 C 58 % 82 % 14 % 1018,8 hPa 0,0 l/m 3,4 km/h (1 Bft) 0 min 13,0 km/h (3 Bft)
14.09.2009 17:20 21,5 C 15,9 C 0,0 UV-I 0,3 C 58 % 82 % 9 % 1018,8 hPa 0,0 l/m 3,8 km/h (1 Bft) 0 min 5,3 km/h (1 Bft)
14.09.2009 17:22 21,5 C 15,9 C 0,0 UV-I 0,2 C 58 % 82 % 6 % 1018,8 hPa 0,0 l/m 4,1 km/h (1 Bft) 0 min 4,1 km/h (1 Bft)
14.09.2009 17:24 21,5 C 15,9 C 0,0 UV-I 0,0 C 58 % 81 % 0 % 1018,8 hPa 0,0 l/m 4,1 km/h (1 Bft) 0 min 6,5 km/h (2 Bft)
14.09.2009 17:26 21,4 C 15,8 C 0,0 UV-I 0,0 C 58 % 81 % 0 % 1018,8 hPa 0,0 l/m 4,1 km/h (1 Bft) 0 min 6,7 km/h (2 Bft)
14.09.2009 17:28 21,4 C 15,9 C 0,0 UV-I 0,0 C 58 % 81 % 0 % 1018,8 hPa 0,0 l/m 3,6 km/h (1 Bft) 0 min 3,6 km/h (1 Bft)
14.09.2009 17:30 21,4 C 15,9 C 0,0 UV-I 0,0 C 58 % 80 % 0 % 1018,8 hPa 0,0 l/m 3,6 km/h (1 Bft) 0 min 5,3 km/h (1 Bft)
14.09.2009 17:32 21,4 C 15,8 C 0,0 UV-I 0,0 C 58 % 80 % 0 % 1018,8 hPa 0,0 l/m 4,1 km/h (1 Bft) 0 min 7,0 km/h (2 Bft)
14.09.2009 17:34 21,4 C 15,8 C 0,1 UV-I 0,0 C 58 % 80 % 0 % 1018,8 hPa 0,0 l/m 4,1 km/h (1 Bft) 0 min 0,0 km/h (0 Bft)
14.09.2009 17:36 21,4 C 15,9 C 0,1 UV-I 0,0 C 58 % 80 % 0 % 1018,5 hPa 0,0 l/m 3,8 km/h (1 Bft) 0 min 3,1 km/h (1 Bft)
14.09.2009 17:38 21,4 C 15,9 C 0,0 UV-I 0,0 C 58 % 80 % 0 % 1018,5 hPa 0,0 l/m 3,6 km/h (1 Bft) 0 min 4,6 km/h (1 Bft)
14.09.2009 17:40 21,2 C 15,7 C 0,0 UV-I 0,0 C 58 % 80 % 0 % 1018,5 hPa 0,0 l/m 3,8 km/h (1 Bft) 0 min 4,6 km/h (1 Bft)
14.09.2009 17:42 21,2 C 15,7 C 0,0 UV-I 0,0 C 58 % 80 % 0 % 1018,5 hPa 0,0 l/m 3,4 km/h (1 Bft) 0 min 5,3 km/h (1 Bft)
14.09.2009 17:44 21,2 C 15,7 C 0,1 UV-I 0,0 C 58 % 80 % 0 % 1018,5 hPa 0,0 l/m 3,1 km/h (1 Bft) 0 min 2,4 km/h (1 Bft)
14.09.2009 17:46 21,2 C 15,7 C 0,1 UV-I 0,0 C 58 % 81 % 0 % 1018,5 hPa 0,0 l/m 2,6 km/h (1 Bft) 0 min 0,0 km/h (0 Bft)
14.09.2009 17:48 21,2 C 15,7 C 0,1 UV-I 0,0 C 58 % 81 % 0 % 1018,5 hPa 0,0 l/m 2,4 km/h (1 Bft) 0 min 4,8 km/h (1 Bft)
14.09.2009 17:50 21,2 C 15,7 C 0,1 UV-I 0,0 C 58 % 81 % 0 % 1018,5 hPa 0,0 l/m 2,9 km/h (1 Bft) 0 min 18,5 km/h (3 Bft)
14.09.2009 17:52 21,3 C 15,6 C 0,1 UV-I 0,0 C 58 % 81 % 0 % 1018,5 hPa 0,0 l/m 2,4 km/h (1 Bft) 0 min 2,6 km/h (1 Bft)
14.09.2009 17:54 21,2 C 15,7 C 0,0 UV-I 0,0 C 58 % 81 % 0 % 1018,5 hPa 0,0 l/m 2,2 km/h (1 Bft) 0 min 0,0 km/h (0 Bft)
14.09.2009 17:56 21,3 C 15,6 C 0,0 UV-I 0,0 C 58 % 81 % 0 % 1018,6 hPa 0,0 l/m 1,9 km/h (1 Bft) 0 min 5,1 km/h (1 Bft)
14.09.2009 17:58 21,2 C 15,6 C 0,0 UV-I 0,0 C 58 % 81 % 0 % 1018,6 hPa 0,0 l/m 1,9 km/h (1 Bft) 0 min 0,0 km/h (0 Bft)
14.09.2009 18:00 21,2 C 15,7 C 0,0 UV-I 0,0 C 58 % 81 % 0 % 1018,6 hPa 0,0 l/m 1,4 km/h (1 Bft) 0 min 0,0 km/h (0 Bft)
14.09.2009 18:02 21,2 C 15,6 C 0,0 UV-I 0,0 C 58 % 81 % 0 % 1018,6 hPa 0,0 l/m 0,7 km/h (0 Bft) 0 min 0,0 km/h (0 Bft)
14.09.2009 18:04 21,2 C 15,6 C 0,0 UV-I 0,0 C 58 % 82 % 0 % 1018,6 hPa 0,0 l/m 0,5 km/h (0 Bft) 0 min 0,0 km/h (0 Bft)
14.09.2009 18:06 21,2 C 15,6 C 0,0 UV-I 0,0 C 58 % 82 % 0 % 1018,6 hPa 0,0 l/m 0,5 km/h (0 Bft) 0 min 2,4 km/h (1 Bft)
14.09.2009 18:08 21,2 C 15,6 C 0,0 UV-I 0,0 C 58 % 82 % 0 % 1018,6 hPa 0,0 l/m 0,5 km/h (0 Bft) 0 min 2,4 km/h (1 Bft)
14.09.2009 18:10 21,2 C 15,5 C 0,0 UV-I 0,0 C 58 % 82 % 0 % 1018,6 hPa 0,0 l/m 0,7 km/h (0 Bft) 0 min 3,1 km/h (1 Bft)
14.09.2009 18:12 21,2 C 15,5 C 0,0 UV-I 0,0 C 58 % 82 % 0 % 1018,6 hPa 0,0 l/m 0,5 km/h (0 Bft) 0 min 0,0 km/h (0 Bft)
14.09.2009 18:14 21,2 C 15,5 C 0,1 UV-I 0,0 C 58 % 82 % 0 % 1018,6 hPa 0,0 l/m 0,7 km/h (0 Bft) 0 min 0,0 km/h (0 Bft)
14.09.2009 18:16 21,1 C 15,5 C 0,1 UV-I 0,0 C 58 % 82 % 0 % 1018,7 hPa 0,0 l/m 0,7 km/h (0 Bft) 0 min 2,4 km/h (1 Bft)
14.09.2009 18:18 21,2 C 15,5 C 0,0 UV-I 0,0 C 58 % 82 % 0 % 1018,7 hPa 0,0 l/m 0,5 km/h (0 Bft) 0 min 0,0 km/h (0 Bft)
14.09.2009 18:20 21,1 C 15,5 C 0,0 UV-I 0,0 C 58 % 82 % 0 % 1018,7 hPa 0,0 l/m 0,5 km/h (0 Bft) 0 min 0,0 km/h (0 Bft)
14.09.2009 18:22 21,1 C 15,5 C 0,0 UV-I 0,0 C 58 % 82 % 0 % 1018,7 hPa 0,0 l/m 0,2 km/h (0 Bft) 0 min 0,0 km/h (0 Bft)
14.09.2009 18:24 21,1 C 15,5 C 0,0 UV-I 0,0 C 58 % 81 % 0 % 1018,7 hPa 0,0 l/m 0,2 km/h (0 Bft) 0 min 0,0 km/h (0 Bft)
14.09.2009 18:26 21,1 C 15,5 C 0,0 UV-I 0,0 C 58 % 81 % 0 % 1018,7 hPa 0,0 l/m 0,2 km/h (0 Bft) 0 min 2,9 km/h (1 Bft)
14.09.2009 18:28 21,1 C 15,5 C 0,0 UV-I 0,0 C 58 % 81 % 0 % 1018,7 hPa 0,0 l/m 0,2 km/h (0 Bft) 0 min 2,6 km/h (1 Bft)
14.09.2009 18:30 21,1 C 15,5 C 0,0 UV-I 0,0 C 58 % 81 % 0 % 1018,7 hPa 0,0 l/m 0,2 km/h (0 Bft) 0 min 2,4 km/h (1 Bft)
14.09.2009 18:32 21,1 C 15,4 C 0,0 UV-I 0,0 C 58 % 81 % 0 % 1018,7 hPa 0,0 l/m 0,2 km/h (0 Bft) 0 min 4,3 km/h (1 Bft)
14.09.2009 18:34 21,1 C 15,4 C 0,0 UV-I 0,0 C 58 % 80 % 0 % 1018,7 hPa 0,0 l/m 0,5 km/h (0 Bft) 0 min 0,0 km/h (0 Bft)
14.09.2009 18:36 21,0 C 15,4 C 0,0 UV-I 0,0 C 58 % 80 % 0 % 1018,7 hPa 0,0 l/m 0,5 km/h (0 Bft) 0 min 0,0 km/h (0 Bft)
14.09.2009 18:38 21,0 C 15,5 C 0,0 UV-I 0,0 C 58 % 80 % 0 % 1018,7 hPa 0,0 l/m 0,5 km/h (0 Bft) 0 min 3,8 km/h (1 Bft)
14.09.2009 18:40 21,0 C 15,4 C 0,0 UV-I 0,0 C 58 % 80 % 0 % 1018,7 hPa 0,0 l/m 0,2 km/h (0 Bft) 0 min 0,0 km/h (0 Bft)
14.09.2009 18:42 21,0 C 15,5 C 0,0 UV-I 0,0 C 58 % 80 % 0 % 1018,7 hPa 0,0 l/m 0,2 km/h (0 Bft) 0 min 0,0 km/h (0 Bft)
14.09.2009 18:44 21,0 C 15,4 C 0,0 UV-I 0,0 C 58 % 80 % 0 % 1018,7 hPa 0,0 l/m 0,2 km/h (0 Bft) 0 min 0,0 km/h (0 Bft)
14.09.2009 18:46 21,0 C 15,5 C 0,0 UV-I 0,0 C 58 % 80 % 0 % 1018,7 hPa 0,0 l/m 0,2 km/h (0 Bft) 0 min 4,3 km/h (1 Bft)
14.09.2009 18:48 21,0 C 15,5 C 0,0 UV-I 0,0 C 58 % 80 % 0 % 1018,7 hPa 0,0 l/m 0,2 km/h (0 Bft) 0 min 0,0 km/h (0 Bft)
14.09.2009 18:50 21,0 C 15,5 C 0,0 UV-I 0,0 C 58 % 80 % 0 % 1018,7 hPa 0,0 l/m 0,2 km/h (0 Bft) 0 min 0,0 km/h (0 Bft)
14.09.2009 18:52 21,0 C 15,5 C 0,0 UV-I 0,0 C 58 % 80 % 0 % 1018,7 hPa 0,0 l/m 0,2 km/h (0 Bft) 0 min 0,0 km/h (0 Bft)
14.09.2009 18:54 21,0 C 15,5 C 0,0 UV-I 0,0 C 58 % 80 % 0 % 1018,7 hPa 0,0 l/m 0,2 km/h (0 Bft) 0 min 0,0 km/h (0 Bft)
14.09.2009 18:56 21,0 C 15,4 C 0,0 UV-I 0,0 C 58 % 80 % 0 % 1018,8 hPa 0,0 l/m 0,2 km/h (0 Bft) 0 min 0,0 km/h (0 Bft)
14.09.2009 18:58 21,0 C 15,3 C 0,0 UV-I 0,0 C 58 % 80 % 0 % 1018,8 hPa 0,0 l/m 0,0 km/h (0 Bft) 0 min 0,0 km/h (0 Bft)
14.09.2009 19:00 21,0 C 15,3 C 0,0 UV-I 0,0 C 58 % 80 % 0 % 1018,8 hPa 0,0 l/m 0,0 km/h (0 Bft) 0 min 0,0 km/h (0 Bft)
14.09.2009 19:02 21,0 C 15,3 C 0,0 UV-I 0,0 C 58 % 80 % 0 % 1018,8 hPa 0,0 l/m 0,0 km/h (0 Bft) 0 min 0,0 km/h (0 Bft)
14.09.2009 19:04 21,0 C 15,3 C 0,0 UV-I 0,0 C 58 % 80 % 0 % 1018,8 hPa 0,0 l/m 0,0 km/h (0 Bft) 0 min 0,0 km/h (0 Bft)
14.09.2009 19:06 21,0 C 15,3 C 0,0 UV-I 0,0 C 58 % 80 % 0 % 1018,8 hPa 0,0 l/m 0,0 km/h (0 Bft) 0 min 0,0 km/h (0 Bft)
14.09.2009 19:08 21,0 C 15,3 C 0,0 UV-I 0,0 C 58 % 80 % 0 % 1018,8 hPa 0,0 l/m 0,0 km/h (0 Bft) 0 min 0,0 km/h (0 Bft)
14.09.2009 19:10 21,0 C 15,3 C 0,0 UV-I 0,0 C 58 % 80 % 0 % 1018,8 hPa 0,0 l/m 0,0 km/h (0 Bft) 0 min 0,0 km/h (0 Bft)
14.09.2009 19:12 21,0 C 15,3 C 0,0 UV-I 0,0 C 58 % 80 % 0 % 1018,8 hPa 0,0 l/m 0,0 km/h (0 Bft) 0 min 0,0 km/h (0 Bft)
14.09.2009 19:14 21,0 C 15,3 C 0,0 UV-I 0,0 C 58 % 80 % 0 % 1018,8 hPa 0,0 l/m 0,0 km/h (0 Bft) 0 min 0,0 km/h (0 Bft)
14.09.2009 19:16 20,9 C 15,2 C 0,0 UV-I 0,0 C 58 % 81 % 0 % 1018,8 hPa 0,5 l/m 0,0 km/h (0 Bft) 0 min 0,0 km/h (0 Bft)
14.09.2009 19:18 20,9 C 15,2 C 0,0 UV-I 0,0 C 58 % 81 % 0 % 1018,8 hPa 0,1 l/m 0,0 km/h (0 Bft) 0 min 0,0 km/h (0 Bft)
14.09.2009 19:20 20,9 C 15,2 C 0,0 UV-I 0,0 C 58 % 82 % 0 % 1018,8 hPa 0,0 l/m 0,2 km/h (0 Bft) 0 min 2,4 km/h (1 Bft)
14.09.2009 19:22 20,9 C 15,1 C 0,0 UV-I 0,0 C 58 % 82 % 0 % 1018,8 hPa 0,0 l/m 0,5 km/h (0 Bft) 0 min 4,1 km/h (1 Bft)
14.09.2009 19:24 20,9 C 15,1 C 0,0 UV-I 0,0 C 58 % 82 % 0 % 1018,8 hPa 0,0 l/m 0,7 km/h (0 Bft) 0 min 0,0 km/h (0 Bft)
14.09.2009 19:26 20,9 C 15,1 C 0,0 UV-I 0,0 C 58 % 82 % 0 % 1018,8 hPa 0,0 l/m 0,7 km/h (0 Bft) 0 min 0,0 km/h (0 Bft)
14.09.2009 19:28 20,9 C 14,9 C 0,0 UV-I 0,0 C 58 % 82 % 0 % 1018,8 hPa 0,0 l/m 0,7 km/h (0 Bft) 0 min 0,0 km/h (0 Bft)
14.09.2009 19:30 20,9 C 14,8 C 0,0 UV-I 0,0 C 58 % 82 % 0 % 1018,8 hPa 0,0 l/m 0,7 km/h (0 Bft) 0 min 0,0 km/h (0 Bft)
14.09.2009 19:32 20,8 C 14,8 C 0,0 UV-I 0,0 C 58 % 81 % 0 % 1018,8 hPa 0,0 l/m 0,5 km/h (0 Bft) 0 min 0,0 km/h (0 Bft)
14.09.2009 19:34 20,8 C 14,7 C 0,0 UV-I 0,0 C 58 % 81 % 0 % 1018,8 hPa 0,0 l/m 0,2 km/h (0 Bft) 0 min 0,0 km/h (0 Bft)
14.09.2009 19:36 20,8 C 14,7 C 0,0 UV-I 0,0 C 58 % 81 % 0 % 1019,1 hPa 0,0 l/m 0,2 km/h (0 Bft) 0 min 0,0 km/h (0 Bft)
14.09.2009 19:38 20,8 C 14,5 C 0,0 UV-I 0,0 C 58 % 81 % 0 % 1019,1 hPa 0,0 l/m 0,0 km/h (0 Bft) 0 min 0,0 km/h (0 Bft)
14.09.2009 19:40 20,8 C 14,5 C 0,0 UV-I 0,0 C 58 % 81 % 0 % 1019,1 hPa 0,0 l/m 0,0 km/h (0 Bft) 0 min 0,0 km/h (0 Bft)
14.09.2009 19:42 20,8 C 14,4 C 0,0 UV-I 0,0 C 58 % 82 % 0 % 1019,1 hPa 0,0 l/m 0,0 km/h (0 Bft) 0 min 0,0 km/h (0 Bft)
14.09.2009 19:44 20,8 C 14,5 C 0,0 UV-I 0,0 C 58 % 82 % 0 % 1019,1 hPa 0,0 l/m 0,0 km/h (0 Bft) 0 min 0,0 km/h (0 Bft)
14.09.2009 19:46 20,8 C 14,4 C 0,0 UV-I 0,0 C 58 % 82 % 0 % 1019,1 hPa 0,0 l/m 0,0 km/h (0 Bft) 0 min 0,0 km/h (0 Bft)
14.09.2009 19:48 20,8 C 14,4 C 0,0 UV-I 0,0 C 58 % 82 % 0 % 1019,1 hPa 0,0 l/m 0,0 km/h (0 Bft) 0 min 0,0 km/h (0 Bft)
14.09.2009 19:50 20,8 C 14,3 C 0,0 UV-I 0,0 C 58 % 82 % 0 % 1019,1 hPa 0,0 l/m 0,0 km/h (0 Bft) 0 min 0,0 km/h (0 Bft)
14.09.2009 19:52 20,8 C 14,2 C 0,0 UV-I 0,0 C 58 % 82 % 0 % 1019,1 hPa 0,0 l/m 0,0 km/h (0 Bft) 0 min 0,0 km/h (0 Bft)
14.09.2009 19:54 20,8 C 14,2 C 0,0 UV-I 0,0 C 58 % 82 % 0 % 1019,1 hPa 0,0 l/m 0,0 km/h (0 Bft) 0 min 0,0 km/h (0 Bft)
14.09.2009 19:56 20,8 C 14,3 C 0,0 UV-I 0,0 C 58 % 82 % 0 % 1019,1 hPa 0,0 l/m 0,0 km/h (0 Bft) 0 min 0,0 km/h (0 Bft)
14.09.2009 19:58 20,8 C 14,3 C 0,0 UV-I 0,0 C 58 % 83 % 0 % 1019,1 hPa 0,0 l/m 0,0 km/h (0 Bft) 0 min 0,0 km/h (0 Bft)
14.09.2009 20:00 20,8 C 14,2 C 0,0 UV-I 0,0 C 58 % 83 % 0 % 1019,1 hPa 0,0 l/m 0,0 km/h (0 Bft) 0 min 0,0 km/h (0 Bft)
14.09.2009 20:02 20,8 C 14,1 C 0,0 UV-I 0,0 C 58 % 83 % 0 % 1019,1 hPa 0,0 l/m 0,0 km/h (0 Bft) 0 min 0,0 km/h (0 Bft)
14.09.2009 20:04 20,8 C 14,1 C 0,0 UV-I 0,0 C 58 % 83 % 0 % 1019,1 hPa 0,0 l/m 0,0 km/h (0 Bft) 0 min 0,0 km/h (0 Bft)
14.09.2009 20:06 20,8 C 14,1 C 0,0 UV-I 0,0 C 58 % 83 % 0 % 1019,1 hPa 0,0 l/m 0,0 km/h (0 Bft) 0 min 0,0 km/h (0 Bft)
14.09.2009 20:08 20,7 C 14,0 C 0,0 UV-I 0,0 C 58 % 83 % 0 % 1019,1 hPa 0,0 l/m 0,0 km/h (0 Bft) 0 min 0,0 km/h (0 Bft)
14.09.2009 20:10 20,7 C 14,0 C 0,0 UV-I 0,0 C 58 % 83 % 0 % 1019,1 hPa 0,0 l/m 0,0 km/h (0 Bft) 0 min 0,0 km/h (0 Bft)
14.09.2009 20:12 20,7 C 14,0 C 0,0 UV-I 0,0 C 58 % 83 % 0 % 1019,1 hPa 0,0 l/m 0,0 km/h (0 Bft) 0 min 0,0 km/h (0 Bft)
14.09.2009 20:14 20,7 C 14,1 C 0,0 UV-I 0,0 C 59 % 83 % 0 % 1019,1 hPa 0,0 l/m 0,0 km/h (0 Bft) 0 min 0,0 km/h (0 Bft)
14.09.2009 20:16 20,7 C 14,0 C 0,0 UV-I 0,0 C 58 % 83 % 0 % 1019,1 hPa 0,0 l/m 0,0 km/h (0 Bft) 0 min 0,0 km/h (0 Bft)
14.09.2009 20:18 20,7 C 14,0 C 0,0 UV-I 0,0 C 59 % 83 % 0 % 1019,1 hPa 0,0 l/m 0,0 km/h (0 Bft) 0 min 0,0 km/h (0 Bft)
14.09.2009 20:20 20,7 C 14,0 C 0,0 UV-I 0,0 C 59 % 84 % 0 % 1019,1 hPa 0,0 l/m 0,0 km/h (0 Bft) 0 min 0,0 km/h (0 Bft)
14.09.2009 20:22 20,7 C 13,9 C 0,0 UV-I 0,0 C 59 % 84 % 0 % 1019,1 hPa 0,0 l/m 0,0 km/h (0 Bft) 0 min 0,0 km/h (0 Bft)
14.09.2009 20:24 20,7 C 13,9 C 0,0 UV-I 0,0 C 59 % 83 % 0 % 1019,1 hPa 0,0 l/m 0,0 km/h (0 Bft) 0 min 0,0 km/h (0 Bft)
14.09.2009 20:26 20,7 C 13,9 C 0,0 UV-I 0,0 C 59 % 83 % 0 % 1019,1 hPa 0,0 l/m 0,0 km/h (0 Bft) 0 min 0,0 km/h (0 Bft)
14.09.2009 20:28 20,6 C 13,9 C 0,0 UV-I 0,0 C 59 % 83 % 0 % 1019,1 hPa 0,0 l/m 0,0 km/h (0 Bft) 0 min 0,0 km/h (0 Bft)
14.09.2009 20:30 20,6 C 13,8 C 0,0 UV-I 0,0 C 58 % 83 % 0 % 1019,1 hPa 0,0 l/m 0,0 km/h (0 Bft) 0 min 0,0 km/h (0 Bft)
14.09.2009 20:32 20,6 C 13,8 C 0,0 UV-I 0,0 C 59 % 84 % 0 % 1019,1 hPa 0,0 l/m 0,0 km/h (0 Bft) 0 min 0,0 km/h (0 Bft)
14.09.2009 20:34 20,6 C 13,9 C 0,0 UV-I 0,0 C 59 % 84 % 0 % 1019,1 hPa 0,0 l/m 0,0 km/h (0 Bft) 0 min 0,0 km/h (0 Bft)
14.09.2009 20:36 20,6 C 13,9 C 0,0 UV-I 0,0 C 59 % 84 % 0 % 1019,1 hPa 0,0 l/m 0,0 km/h (0 Bft) 0 min 0,0 km/h (0 Bft)
14.09.2009 20:38 20,6 C 13,9 C 0,0 UV-I 0,0 C 59 % 84 % 0 % 1019,1 hPa 0,0 l/m 0,0 km/h (0 Bft) 0 min 0,0 km/h (0 Bft)
14.09.2009 20:40 20,6 C 13,9 C 0,0 UV-I 0,0 C 59 % 84 % 0 % 1019,1 hPa 0,0 l/m 0,0 km/h (0 Bft) 0 min 0,0 km/h (0 Bft)
14.09.2009 20:42 20,6 C 13,8 C 0,0 UV-I 0,0 C 58 % 84 % 0 % 1019,1 hPa 0,0 l/m 0,0 km/h (0 Bft) 0 min 0,0 km/h (0 Bft)
14.09.2009 20:44 20,6 C 13,7 C 0,0 UV-I 0,0 C 59 % 84 % 0 % 1019,1 hPa 0,0 l/m 0,0 km/h (0 Bft) 0 min 0,0 km/h (0 Bft)
14.09.2009 20:46 20,6 C 13,7 C 0,0 UV-I 0,0 C 58 % 84 % 0 % 1019,1 hPa 0,0 l/m 0,0 km/h (0 Bft) 0 min 0,0 km/h (0 Bft)
14.09.2009 20:48 20,6 C 13,7 C 0,0 UV-I 0,0 C 59 % 84 % 0 % 1019,1 hPa 0,0 l/m 0,0 km/h (0 Bft) 0 min 0,0 km/h (0 Bft)
14.09.2009 20:50 20,6 C 13,7 C 0,0 UV-I 0,0 C 59 % 84 % 0 % 1019,1 hPa 0,0 l/m 0,0 km/h (0 Bft) 0 min 0,0 km/h (0 Bft)
14.09.2009 20:52 20,6 C 13,7 C 0,0 UV-I 0,0 C 59 % 84 % 0 % 1019,1 hPa 0,0 l/m 0,0 km/h (0 Bft) 0 min 0,0 km/h (0 Bft)
14.09.2009 20:54 20,6 C 13,6 C 0,0 UV-I 0,0 C 59 % 85 % 0 % 1019,1 hPa 0,0 l/m 0,0 km/h (0 Bft) 0 min 0,0 km/h (0 Bft)
14.09.2009 20:56 20,6 C 13,6 C 0,0 UV-I 0,0 C 59 % 85 % 0 % 1019,3 hPa 0,0 l/m 0,0 km/h (0 Bft) 0 min 0,0 km/h (0 Bft)
14.09.2009 20:58 20,6 C 13,6 C 0,0 UV-I 0,0 C 59 % 85 % 0 % 1019,3 hPa 0,0 l/m 0,0 km/h (0 Bft) 0 min 0,0 km/h (0 Bft)
14.09.2009 21:00 20,6 C 13,7 C 0,0 UV-I 0,0 C 59 % 85 % 0 % 1019,3 hPa 0,0 l/m 0,0 km/h (0 Bft) 0 min 0,0 km/h (0 Bft)
14.09.2009 21:02 20,6 C 13,7 C 0,0 UV-I 0,0 C 59 % 85 % 0 % 1019,3 hPa 0,0 l/m 0,0 km/h (0 Bft) 0 min 0,0 km/h (0 Bft)
14.09.2009 21:04 20,6 C 13,6 C 0,0 UV-I 0,0 C 59 % 85 % 0 % 1019,3 hPa 0,0 l/m 0,0 km/h (0 Bft) 0 min 0,0 km/h (0 Bft)
14.09.2009 21:06 20,6 C 13,6 C 0,0 UV-I 0,0 C 59 % 85 % 0 % 1019,3 hPa 0,0 l/m 0,0 km/h (0 Bft) 0 min 0,0 km/h (0 Bft)
14.09.2009 21:08 20,6 C 13,6 C 0,0 UV-I 0,0 C 59 % 86 % 0 % 1019,3 hPa 0,0 l/m 0,0 km/h (0 Bft) 0 min 0,0 km/h (0 Bft)
14.09.2009 21:10 20,6 C 13,6 C 0,0 UV-I 0,0 C 59 % 86 % 0 % 1019,3 hPa 0,0 l/m 0,0 km/h (0 Bft) 0 min 0,0 km/h (0 Bft)
14.09.2009 21:12 20,6 C 13,5 C 0,0 UV-I 0,0 C 59 % 85 % 0 % 1019,3 hPa 0,0 l/m 0,0 km/h (0 Bft) 0 min 0,0 km/h (0 Bft)
14.09.2009 21:14 20,6 C 13,5 C 0,0 UV-I 0,0 C 59 % 86 % 0 % 1019,3 hPa 0,0 l/m 0,0 km/h (0 Bft) 0 min 0,0 km/h (0 Bft)
14.09.2009 21:16 20,6 C 13,5 C 0,0 UV-I 0,0 C 59 % 86 % 0 % 1019,4 hPa 0,0 l/m 0,0 km/h (0 Bft) 0 min 0,0 km/h (0 Bft)
14.09.2009 21:18 20,6 C 13,5 C 0,0 UV-I 0,0 C 59 % 86 % 0 % 1019,4 hPa 0,0 l/m 0,0 km/h (0 Bft) 0 min 0,0 km/h (0 Bft)
14.09.2009 21:20 20,6 C 13,5 C 0,0 UV-I 0,0 C 59 % 86 % 0 % 1019,4 hPa 0,0 l/m 0,0 km/h (0 Bft) 0 min 0,0 km/h (0 Bft)
14.09.2009 21:22 20,6 C 13,5 C 0,0 UV-I 0,0 C 59 % 86 % 0 % 1019,4 hPa 0,0 l/m 0,0 km/h (0 Bft) 0 min 0,0 km/h (0 Bft)
14.09.2009 21:24 20,6 C 13,5 C 0,0 UV-I 0,0 C 59 % 86 % 0 % 1019,4 hPa 0,1 l/m 0,0 km/h (0 Bft) 0 min 0,0 km/h (0 Bft)
14.09.2009 21:26 20,6 C 13,4 C 0,0 UV-I 0,0 C 59 % 86 % 0 % 1019,4 hPa 0,0 l/m 0,0 km/h (0 Bft) 0 min 0,0 km/h (0 Bft)
14.09.2009 21:28 20,6 C 13,4 C 0,0 UV-I 0,0 C 59 % 86 % 0 % 1019,4 hPa 0,0 l/m 0,0 km/h (0 Bft) 0 min 0,0 km/h (0 Bft)
14.09.2009 21:30 20,6 C 13,5 C 0,0 UV-I 0,0 C 59 % 86 % 0 % 1019,4 hPa 0,0 l/m 0,0 km/h (0 Bft) 0 min 0,0 km/h (0 Bft)
14.09.2009 21:32 20,6 C 13,5 C 0,0 UV-I 0,0 C 59 % 86 % 0 % 1019,4 hPa 0,0 l/m 0,2 km/h (0 Bft) 0 min 4,8 km/h (1 Bft)
14.09.2009 21:34 20,5 C 13,5 C 0,0 UV-I 0,0 C 59 % 86 % 0 % 1019,4 hPa 0,0 l/m 0,2 km/h (0 Bft) 0 min 0,0 km/h (0 Bft)
14.09.2009 21:36 20,6 C 13,5 C 0,0 UV-I 0,0 C 59 % 86 % 0 % 1019,5 hPa 0,0 l/m 0,2 km/h (0 Bft) 0 min 0,0 km/h (0 Bft)
14.09.2009 21:38 20,5 C 13,5 C 0,0 UV-I 0,0 C 59 % 86 % 0 % 1019,5 hPa 0,1 l/m 0,2 km/h (0 Bft) 0 min 0,0 km/h (0 Bft)
14.09.2009 21:40 20,5 C 13,5 C 0,0 UV-I 0,0 C 59 % 86 % 0 % 1019,5 hPa 0,0 l/m 0,2 km/h (0 Bft) 0 min 0,0 km/h (0 Bft)
14.09.2009 21:42 20,5 C 13,5 C 0,0 UV-I 0,0 C 59 % 86 % 0 % 1019,5 hPa 0,0 l/m 0,2 km/h (0 Bft) 0 min 0,0 km/h (0 Bft)
14.09.2009 21:44 20,5 C 13,5 C 0,0 UV-I 0,0 C 59 % 86 % 0 % 1019,5 hPa 0,0 l/m 0,0 km/h (0 Bft) 0 min 0,0 km/h (0 Bft)
14.09.2009 21:46 20,5 C 13,5 C 0,0 UV-I 0,0 C 59 % 86 % 0 % 1019,5 hPa 0,0 l/m 0,0 km/h (0 Bft) 0 min 0,0 km/h (0 Bft)
14.09.2009 21:48 20,5 C 13,5 C 0,0 UV-I 0,0 C 59 % 86 % 0 % 1019,5 hPa 0,1 l/m 0,0 km/h (0 Bft) 0 min 0,0 km/h (0 Bft)
14.09.2009 21:50 20,5 C 13,5 C 0,0 UV-I 0,0 C 59 % 86 % 0 % 1019,5 hPa 0,0 l/m 0,0 km/h (0 Bft) 0 min 0,0 km/h (0 Bft)
14.09.2009 21:52 20,5 C 13,5 C 0,0 UV-I 0,0 C 59 % 86 % 0 % 1019,5 hPa 0,0 l/m 0,0 km/h (0 Bft) 0 min 0,0 km/h (0 Bft)
14.09.2009 21:54 20,5 C 13,5 C 0,0 UV-I 0,0 C 59 % 86 % 0 % 1019,5 hPa 0,1 l/m 0,0 km/h (0 Bft) 0 min 0,0 km/h (0 Bft)
14.09.2009 21:56 20,5 C 13,5 C 0,0 UV-I 0,0 C 59 % 86 % 0 % 1019,5 hPa 0,0 l/m 0,0 km/h (0 Bft) 0 min 0,0 km/h (0 Bft)
14.09.2009 21:58 20,5 C 13,4 C 0,0 UV-I 0,0 C 59 % 87 % 0 % 1019,5 hPa 0,0 l/m 0,0 km/h (0 Bft) 0 min 0,0 km/h (0 Bft)
14.09.2009 22:00 20,5 C 13,4 C 0,0 UV-I 0,0 C 59 % 87 % 0 % 1019,5 hPa 0,0 l/m 0,0 km/h (0 Bft) 0 min 0,0 km/h (0 Bft)
14.09.2009 22:02 20,5 C 13,4 C 0,0 UV-I 0,0 C 59 % 87 % 0 % 1019,5 hPa 0,0 l/m 0,0 km/h (0 Bft) 0 min 0,0 km/h (0 Bft)
14.09.2009 22:04 20,5 C 13,3 C 0,0 UV-I 0,0 C 59 % 87 % 0 % 1019,5 hPa 0,0 l/m 0,0 km/h (0 Bft) 0 min 0,0 km/h (0 Bft)
14.09.2009 22:06 20,5 C 13,3 C 0,0 UV-I 0,0 C 59 % 87 % 0 % 1019,5 hPa 0,1 l/m 0,0 km/h (0 Bft) 0 min 0,0 km/h (0 Bft)
14.09.2009 22:08 20,5 C 13,3 C 0,0 UV-I 0,0 C 59 % 87 % 0 % 1019,5 hPa 0,0 l/m 0,0 km/h (0 Bft) 0 min 0,0 km/h (0 Bft)
14.09.2009 22:10 20,5 C 13,3 C 0,0 UV-I 0,0 C 59 % 87 % 0 % 1019,5 hPa 0,1 l/m 0,0 km/h (0 Bft) 0 min 0,0 km/h (0 Bft)
14.09.2009 22:12 20,5 C 13,3 C 0,0 UV-I 0,0 C 59 % 87 % 0 % 1019,5 hPa 0,0 l/m 0,0 km/h (0 Bft) 0 min 0,0 km/h (0 Bft)
14.09.2009 22:14 20,5 C 13,2 C 0,0 UV-I 0,0 C 59 % 87 % 0 % 1019,5 hPa 0,0 l/m 0,0 km/h (0 Bft) 0 min 0,0 km/h (0 Bft)
14.09.2009 22:16 20,4 C 13,3 C 0,0 UV-I 0,0 C 59 % 87 % 0 % 1019,5 hPa 0,0 l/m 0,0 km/h (0 Bft) 0 min 0,0 km/h (0 Bft)
14.09.2009 22:18 20,5 C 13,2 C 0,0 UV-I 0,0 C 59 % 87 % 0 % 1019,5 hPa 0,1 l/m 0,0 km/h (0 Bft) 0 min 0,0 km/h (0 Bft)
14.09.2009 22:20 20,5 C 13,2 C 0,0 UV-I 0,0 C 59 % 87 % 0 % 1019,5 hPa 0,0 l/m 0,0 km/h (0 Bft) 0 min 0,0 km/h (0 Bft)
14.09.2009 22:22 20,4 C 13,2 C 0,0 UV-I 0,0 C 59 % 88 % 0 % 1019,5 hPa 0,0 l/m 0,0 km/h (0 Bft) 0 min 0,0 km/h (0 Bft)
14.09.2009 22:24 20,4 C 13,3 C 0,0 UV-I 0,0 C 59 % 88 % 0 % 1019,5 hPa 0,1 l/m 0,0 km/h (0 Bft) 0 min 0,0 km/h (0 Bft)
14.09.2009 22:26 20,4 C 13,3 C 0,0 UV-I 0,0 C 59 % 88 % 0 % 1019,5 hPa 0,0 l/m 0,0 km/h (0 Bft) 0 min 0,0 km/h (0 Bft)
14.09.2009 22:28 20,4 C 13,3 C 0,0 UV-I 0,0 C 59 % 88 % 0 % 1019,5 hPa 0,1 l/m 0,0 km/h (0 Bft) 0 min 0,0 km/h (0 Bft)
14.09.2009 22:30 20,4 C 13,2 C 0,0 UV-I 0,0 C 59 % 88 % 0 % 1019,5 hPa 0,0 l/m 0,0 km/h (0 Bft) 0 min 0,0 km/h (0 Bft)
14.09.2009 22:32 20,4 C 13,2 C 0,0 UV-I 0,0 C 59 % 88 % 0 % 1019,5 hPa 0,0 l/m 0,2 km/h (0 Bft) 0 min 0,0 km/h (0 Bft)
14.09.2009 22:34 20,4 C 13,2 C 0,0 UV-I 0,0 C 59 % 88 % 0 % 1019,5 hPa 0,1 l/m 0,5 km/h (0 Bft) 0 min 2,4 km/h (1 Bft)
14.09.2009 22:36 20,4 C 13,2 C 0,0 UV-I 0,0 C 59 % 88 % 0 % 1019,5 hPa 0,0 l/m 0,5 km/h (0 Bft) 0 min 0,0 km/h (0 Bft)
14.09.2009 22:38 20,4 C 13,2 C 0,0 UV-I 0,0 C 59 % 88 % 0 % 1019,5 hPa 0,0 l/m 0,5 km/h (0 Bft) 0 min 0,0 km/h (0 Bft)
14.09.2009 22:40 20,4 C 13,2 C 0,0 UV-I 0,0 C 59 % 88 % 0 % 1019,5 hPa 0,1 l/m 0,5 km/h (0 Bft) 0 min 0,0 km/h (0 Bft)
14.09.2009 22:42 20,4 C 13,1 C 0,0 UV-I 0,0 C 59 % 88 % 0 % 1019,5 hPa 0,0 l/m 0,2 km/h (0 Bft) 0 min 0,0 km/h (0 Bft)
14.09.2009 22:44 20,4 C 13,1 C 0,0 UV-I 0,0 C 59 % 88 % 0 % 1019,5 hPa 0,0 l/m 0,2 km/h (0 Bft) 0 min 0,0 km/h (0 Bft)
14.09.2009 22:46 20,4 C 13,1 C 0,0 UV-I 0,0 C 59 % 89 % 0 % 1019,5 hPa 0,1 l/m 0,2 km/h (0 Bft) 0 min 3,1 km/h (1 Bft)
14.09.2009 22:48 20,4 C 13,1 C 0,0 UV-I 0,0 C 59 % 89 % 0 % 1019,5 hPa 0,0 l/m 0,0 km/h (0 Bft) 0 min 0,0 km/h (0 Bft)
14.09.2009 22:50 20,4 C 13,1 C 0,0 UV-I 0,0 C 59 % 89 % 0 % 1019,5 hPa 0,0 l/m 0,0 km/h (0 Bft) 0 min 0,0 km/h (0 Bft)
14.09.2009 22:52 20,4 C 13,1 C 0,0 UV-I 0,0 C 59 % 89 % 0 % 1019,5 hPa 0,1 l/m 0,0 km/h (0 Bft) 0 min 0,0 km/h (0 Bft)
14.09.2009 22:54 20,4 C 13,0 C 0,0 UV-I 0,0 C 59 % 89 % 0 % 1019,5 hPa 0,0 l/m 0,0 km/h (0 Bft) 0 min 0,0 km/h (0 Bft)
14.09.2009 22:56 20,4 C 13,0 C 0,0 UV-I 0,0 C 59 % 89 % 0 % 1019,6 hPa 0,0 l/m 0,0 km/h (0 Bft) 0 min 0,0 km/h (0 Bft)
14.09.2009 22:58 20,4 C 13,0 C 0,0 UV-I 0,0 C 59 % 89 % 0 % 1019,6 hPa 0,1 l/m 0,0 km/h (0 Bft) 0 min 0,0 km/h (0 Bft)
14.09.2009 23:00 20,4 C 13,0 C 0,0 UV-I 0,0 C 59 % 89 % 0 % 1019,6 hPa 0,0 l/m 0,0 km/h (0 Bft) 0 min 0,0 km/h (0 Bft)
14.09.2009 23:02 20,4 C 13,0 C 0,0 UV-I 0,0 C 59 % 89 % 0 % 1019,6 hPa 0,0 l/m 0,2 km/h (0 Bft) 0 min 3,6 km/h (1 Bft)
14.09.2009 23:04 20,4 C 13,1 C 0,0 UV-I 0,0 C 59 % 90 % 0 % 1019,6 hPa 0,1 l/m 0,2 km/h (0 Bft) 0 min 0,0 km/h (0 Bft)
14.09.2009 23:06 20,4 C 13,1 C 0,0 UV-I 0,0 C 59 % 90 % 0 % 1019,6 hPa 0,0 l/m 0,2 km/h (0 Bft) 0 min 0,0 km/h (0 Bft)
14.09.2009 23:08 20,4 C 13,1 C 0,0 UV-I 0,0 C 59 % 90 % 0 % 1019,6 hPa 0,0 l/m 0,2 km/h (0 Bft) 0 min 0,0 km/h (0 Bft)
14.09.2009 23:10 20,4 C 13,1 C 0,0 UV-I 0,0 C 59 % 90 % 0 % 1019,6 hPa 0,1 l/m 0,5 km/h (0 Bft) 0 min 0,0 km/h (0 Bft)
14.09.2009 23:12 20,4 C 13,1 C 0,0 UV-I 0,0 C 59 % 90 % 0 % 1019,6 hPa 0,0 l/m 0,5 km/h (0 Bft) 0 min 2,9 km/h (1 Bft)
14.09.2009 23:14 20,4 C 13,1 C 0,0 UV-I 0,0 C 59 % 90 % 0 % 1019,6 hPa 0,0 l/m 0,7 km/h (0 Bft) 0 min 3,6 km/h (1 Bft)
14.09.2009 23:16 20,4 C 13,0 C 0,0 UV-I 0,0 C 59 % 90 % 0 % 1019,3 hPa 0,0 l/m 1,0 km/h (0 Bft) 0 min 0,0 km/h (0 Bft)
14.09.2009 23:18 20,4 C 13,0 C 0,0 UV-I 0,0 C 59 % 90 % 0 % 1019,3 hPa 0,0 l/m 1,0 km/h (0 Bft) 0 min 3,4 km/h (1 Bft)
14.09.2009 23:20 20,4 C 13,0 C 0,0 UV-I 0,0 C 59 % 90 % 0 % 1019,3 hPa 0,0 l/m 0,7 km/h (0 Bft) 0 min 0,0 km/h (0 Bft)
14.09.2009 23:22 20,4 C 13,0 C 0,0 UV-I 0,0 C 59 % 90 % 0 % 1019,3 hPa 0,0 l/m 0,7 km/h (0 Bft) 0 min 3,4 km/h (1 Bft)
14.09.2009 23:26 20,4 C 12,9 C 0,0 UV-I 0,0 C 59 % 90 % 0 % 1019,3 hPa 0,0 l/m 1,0 km/h (0 Bft) 0 min 3,8 km/h (1 Bft)
14.09.2009 23:28 20,4 C 13,0 C 0,0 UV-I 0,0 C 59 % 90 % 0 % 1019,3 hPa 0,1 l/m 1,0 km/h (0 Bft) 0 min 0,0 km/h (0 Bft)
14.09.2009 23:30 20,4 C 12,9 C 0,0 UV-I 0,0 C 59 % 90 % 0 % 1019,3 hPa 0,0 l/m 1,0 km/h (0 Bft) 0 min 3,4 km/h (1 Bft)
14.09.2009 23:32 20,4 C 12,9 C 0,0 UV-I 0,0 C 59 % 90 % 0 % 1019,3 hPa 0,0 l/m 1,2 km/h (1 Bft) 0 min 0,0 km/h (0 Bft)
14.09.2009 23:34 20,4 C 12,9 C 0,0 UV-I 0,0 C 59 % 90 % 0 % 1019,3 hPa 0,1 l/m 0,7 km/h (0 Bft) 0 min 0,0 km/h (0 Bft)
14.09.2009 23:36 20,4 C 12,9 C 0,0 UV-I 0,0 C 59 % 90 % 0 % 1019,3 hPa 0,0 l/m 0,7 km/h (0 Bft) 0 min 3,6 km/h (1 Bft)
14.09.2009 23:38 20,4 C 12,9 C 0,0 UV-I 0,0 C 59 % 91 % 0 % 1019,3 hPa 0,0 l/m 0,5 km/h (0 Bft) 0 min 0,0 km/h (0 Bft)
14.09.2009 23:40 20,4 C 12,9 C 0,0 UV-I 0,0 C 59 % 91 % 0 % 1019,3 hPa 0,1 l/m 0,5 km/h (0 Bft) 0 min 0,0 km/h (0 Bft)
14.09.2009 23:42 20,2 C 12,9 C 0,0 UV-I 0,0 C 59 % 91 % 0 % 1019,3 hPa 0,0 l/m 0,5 km/h (0 Bft) 0 min 0,0 km/h (0 Bft)
14.09.2009 23:44 20,2 C 12,9 C 0,0 UV-I 0,0 C 59 % 91 % 0 % 1019,3 hPa 0,0 l/m 0,2 km/h (0 Bft) 0 min 0,0 km/h (0 Bft)
14.09.2009 23:46 20,2 C 12,9 C 0,0 UV-I 0,0 C 59 % 91 % 0 % 1019,3 hPa 0,1 l/m 0,2 km/h (0 Bft) 0 min 0,0 km/h (0 Bft)
14.09.2009 23:48 20,2 C 12,9 C 0,0 UV-I 0,0 C 59 % 91 % 0 % 1019,3 hPa 0,0 l/m 0,5 km/h (0 Bft) 0 min 4,1 km/h (1 Bft)
14.09.2009 23:50 20,2 C 12,8 C 0,0 UV-I 0,0 C 59 % 91 % 0 % 1019,3 hPa 0,0 l/m 0,5 km/h (0 Bft) 0 min 0,0 km/h (0 Bft)
14.09.2009 23:52 20,2 C 12,9 C 0,0 UV-I 0,0 C 59 % 91 % 0 % 1019,3 hPa 0,1 l/m 0,5 km/h (0 Bft) 0 min 0,0 km/h (0 Bft)
14.09.2009 23:54 20,2 C 12,9 C 0,0 UV-I 0,0 C 59 % 91 % 0 % 1019,3 hPa 0,0 l/m 0,5 km/h (0 Bft) 0 min 0,0 km/h (0 Bft)
14.09.2009 23:56 20,2 C 12,8 C 0,0 UV-I 0,0 C 60 % 91 % 0 % 1019,3 hPa 0,0 l/m 0,5 km/h (0 Bft) 0 min 0,0 km/h (0 Bft)
14.09.2009 23:58 20,3 C 12,9 C 0,0 UV-I 0,0 C 60 % 91 % 0 % 1019,3 hPa 0,1 l/m 0,5 km/h (0 Bft) 0 min 0,0 km/h (0 Bft)
_ Min-Zeit 00:02 01:08 00:00 00:00 14:56 14:50 00:00 17:36 - 01:02 - 00:02
Minimum _ 19,2 C 11,8 C 0,0 UV-I 0,0 C 57 % 76 % 0 % 1018,5 hPa - 0,0 km/h (0 Bft) - 0,0 km/h (0 Bft)
_ Max-Zeit 14:46 14:48 14:44 14:42 08:22 01:36 14:38 00:58 19:16 13:14 14:34 13:42
Maximum _ 21,6 C 17,4 C 6,7 UV-I 4,7 C 61 % 91 % 100 % 1021,1 hPa 0,5 l/m 7,9 km/h
SW (2 Bft)
2 min 19,7 km/h
SW (3 Bft)
Durchschnitt _ 20,3 C 13,9 C 0,5 UV-I 0,3 C 59 % 87 % 7 % 1020,0 hPa #3,6 l/m 1,7 km/h (1 Bft) #20 min. 2,8 km/h (1 Bft)
© 2012 W. Hausmann